GFSSW_prec_precacc24_114.txt.gz
Total_Precipitation_Accumulation
0.02 0.02 0.02 0.02 0.02 0.02 0.02 0.01 0.00 0.00 0.00 0.00 0.00 0.00 0.00 0.00 0.00 0.00 0.00 0.00 0.00 0.00 0.00 0.00 0.00 0.00 0.00 0.00 0.00 0.00 0.00 0.00 0.00 0.00 0.00 0.00 0.00 0.00 0.00 0.00 0.00 0.00 0.00 0.00 0.00
0.01 0.01 0.02 0.02 0.02 0.02 0.02 0.02 0.01 0.00 0.00 0.00 0.00 0.00 0.00 0.00 0.00 0.00 0.00 0.00 0.00 0.00 0.00 0.00 0.00 0.00 0.00 0.00 0.00 0.00 0.00 0.00 0.00 0.00 0.00 0.00 0.00 0.00 0.00 0.00 0.00 0.00 0.00 0.00 0.00
0.02 0.02 0.01 0.02 0.03 0.02 0.02 0.02 0.03 0.01 0.00 0.00 0.00 0.00 0.00 0.00 0.00 0.00 0.00 0.00 0.00 0.00 0.00 0.00 0.00 0.00 0.00 0.00 0.00 0.00 0.00 0.00 0.00 0.00 0.00 0.00 0.00 0.00 0.00 0.00 0.00 0.00 0.00 0.00 0.00
0.07 0.05 0.03 0.02 0.03 0.03 0.02 0.03 0.06 0.07 0.01 0.00 0.00 0.00 0.00 0.00 0.00 0.00 0.00 0.00 0.00 0.00 0.00 0.00 0.00 0.00 0.00 0.00 0.00 0.00 0.00 0.00 0.00 0.00 0.00 0.00 0.00 0.00 0.00 0.00 0.00 0.00 0.00 0.00 0.00
0.05 0.08 0.10 0.06 0.05 0.04 0.04 0.03 0.04 0.06 0.04 0.00 0.00 0.00 0.00 0.00 0.00 0.00 0.00 0.00 0.00 0.00 0.00 0.00 0.00 0.00 0.00 0.00 0.00 0.00 0.00 0.00 0.00 0.00 0.00 0.00 0.00 0.00 0.00 0.00 0.00 0.00 0.00 0.00 0.00
0.08 0.11 0.09 0.11 0.14 0.12 0.06 0.05 0.07 0.10 0.09 0.02 0.00 0.00 0.00 0.00 0.00 0.00 0.00 0.00 0.00 0.00 0.00 0.00 0.00 0.00 0.00 0.00 0.00 0.00 0.00 0.00 0.00 0.00 0.00 0.00 0.00 0.00 0.00 0.00 0.00 0.00 0.00 0.00 0.00
0.05 0.08 0.16 0.16 0.09 0.10 0.18 0.20 0.13 0.07 0.09 0.06 0.00 0.00 0.00 0.00 0.00 0.00 0.00 0.00 0.00 0.00 0.00 0.00 0.00 0.00 0.00 0.00 0.00 0.00 0.00 0.00 0.00 0.00 0.00 0.00 0.00 0.00 0.00 0.00 0.00 0.00 0.00 0.00 0.00
0.06 0.06 0.11 0.14 0.22 0.26 0.16 0.10 0.21 0.25 0.17 0.08 0.02 0.00 0.00 0.00 0.00 0.00 0.00 0.00 0.00 0.00 0.00 0.00 0.00 0.00 0.00 0.00 0.00 0.00 0.00 0.00 0.00 0.00 0.00 0.00 0.00 0.00 0.00 0.00 0.00 0.00 0.00 0.00 0.00
0.10 0.10 0.10 0.12 0.15 0.20 0.22 0.25 0.19 0.15 0.22 0.25 0.16 0.02 0.00 0.00 0.00 0.00 0.00 0.00 0.00 0.00 0.00 0.00 0.00 0.00 0.00 0.00 0.00 0.00 0.00 0.00 0.00 0.00 0.00 0.00 0.00 0.00 0.00 0.00 0.00 0.00 0.00 0.00 0.00
0.15 0.13 0.12 0.11 0.18 0.34 0.37 0.35 0.29 0.29 0.20 0.25 0.24 0.12 0.01 0.00 0.00 0.00 0.00 0.00 0.00 0.00 0.00 0.00 0.00 0.00 0.00 0.00 0.00 0.00 0.00 0.00 0.00 0.00 0.00 0.00 0.00 0.00 0.00 0.00 0.00 0.00 0.00 0.00 0.00
0.15 0.18 0.19 0.22 0.27 0.44 0.74 0.80 0.85 0.73 0.56 0.16 0.05 0.02 0.00 0.00 0.00 0.00 0.00 0.00 0.00 0.00 0.00 0.00 0.00 0.00 0.00 0.00 0.00 0.00 0.00 0.00 0.00 0.00 0.00 0.00 0.00 0.00 0.00 0.00 0.00 0.00 0.00 0.00 0.00
0.20 0.23 0.32 0.39 0.36 0.50 0.72 0.63 0.38 0.47 0.27 0.11 0.02 0.00 0.00 0.00 0.00 0.00 0.00 0.00 0.00 0.00 0.00 0.00 0.00 0.00 0.00 0.00 0.00 0.00 0.00 0.00 0.00 0.00 0.00 0.00 0.00 0.00 0.00 0.00 0.00 0.00 0.00 0.00 0.00
0.31 0.26 0.30 0.46 0.66 0.74 0.60 0.32 0.22 0.35 0.34 0.10 0.04 0.01 0.00 0.00 0.00 0.00 0.00 0.00 0.00 0.00 0.00 0.00 0.00 0.00 0.00 0.00 0.00 0.00 0.00 0.00 0.00 0.00 0.00 0.00 0.00 0.00 0.00 0.00 0.00 0.00 0.00 0.00 0.00
0.36 0.38 0.39 0.54 0.94 0.68 0.55 0.32 0.31 0.65 0.79 0.23 0.02 0.03 0.00 0.02 0.01 0.00 0.00 0.00 0.00 0.00 0.00 0.00 0.00 0.00 0.00 0.00 0.00 0.00 0.00 0.00 0.00 0.00 0.00 0.00 0.00 0.00 0.00 0.00 0.00 0.00 0.00 0.00 0.00
0.55 0.43 0.55 0.83 0.68 0.68 0.51 0.46 0.69 1.31 1.75 0.26 0.00 0.00 0.00 0.02 0.01 0.00 0.00 0.00 0.00 0.00 0.00 0.00 0.00 0.00 0.00 0.00 0.00 0.00 0.00 0.00 0.00 0.00 0.00 0.00 0.00 0.00 0.00 0.00 0.00 0.00 0.00 0.00 0.00
0.50 0.72 0.65 0.72 0.77 0.38 0.47 1.13 1.59 1.91 1.79 0.24 0.00 0.00 0.00 0.00 0.00 0.00 0.00 0.00 0.00 0.00 0.00 0.00 0.00 0.00 0.00 0.00 0.00 0.00 0.00 0.00 0.00 0.00 0.00 0.00 0.00 0.00 0.00 0.00 0.00 0.00 0.00 0.00 0.00
0.77 0.65 0.90 0.71 0.66 0.57 1.07 2.01 2.30 1.79 0.56 0.20 0.03 0.00 0.00 0.00 0.00 0.01 0.01 0.00 0.00 0.00 0.00 0.00 0.00 0.00 0.00 0.00 0.00 0.00 0.00 0.00 0.00 0.00 0.00 0.00 0.00 0.00 0.00 0.00 0.00 0.00 0.00 0.00 0.00
0.81 0.84 0.73 0.70 0.58 1.04 1.71 2.08 2.14 0.57 0.16 0.07 0.03 0.00 0.00 0.00 0.00 0.01 0.00 0.00 0.00 0.00 0.00 0.00 0.00 0.00 0.00 0.00 0.00 0.00 0.00 0.00 0.00 0.00 0.00 0.00 0.00 0.00 0.00 0.00 0.00 0.00 0.00 0.00 0.00
0.80 0.97 0.99 0.65 0.62 1.36 2.06 2.14 1.15 0.22 0.02 0.02 0.04 0.07 0.03 0.00 0.00 0.03 0.02 0.00 0.00 0.00 0.00 0.00 0.00 0.00 0.00 0.00 0.00 0.00 0.00 0.00 0.00 0.00 0.00 0.00 0.00 0.00 0.00 0.00 0.00 0.00 0.00 0.00 0.00
1.28 1.15 1.15 0.88 0.92 1.43 1.88 1.41 0.46 0.05 0.03 0.03 0.07 0.04 0.04 0.01 0.00 0.02 0.03 0.00 0.00 0.00 0.00 0.00 0.00 0.00 0.00 0.00 0.00 0.00 0.00 0.00 0.00 0.00 0.00 0.00 0.00 0.00 0.00 0.00 0.00 0.00 0.00 0.00 0.00
1.49 1.42 0.89 1.04 1.30 1.70 1.64 0.53 0.07 0.01 0.07 0.18 0.06 0.05 0.01 0.01 0.01 0.00 0.01 0.00 0.00 0.00 0.00 0.00 0.00 0.00 0.00 0.00 0.00 0.00 0.00 0.00 0.00 0.00 0.00 0.00 0.00 0.00 0.00 0.00 0.00 0.00 0.00 0.00 0.00
1.60 1.39 1.08 1.38 1.90 1.61 0.91 0.12 0.01 0.01 0.05 0.13 0.14 0.07 0.05 0.01 0.02 0.01 0.00 0.00 0.00 0.00 0.00 0.00 0.00 0.00 0.00 0.00 0.00 0.00 0.00 0.00 0.00 0.00 0.00 0.00 0.00 0.00 0.00 0.00 0.00 0.00 0.00 0.00 0.00
1.57 1.06 1.19 1.03 1.72 1.12 0.27 0.02 0.01 0.02 0.11 0.20 0.14 0.05 0.01 0.03 0.08 0.01 0.00 0.00 0.00 0.00 0.00 0.00 0.00 0.00 0.00 0.00 0.00 0.00 0.00 0.00 0.00 0.00 0.00 0.00 0.00 0.00 0.00 0.00 0.00 0.00 0.00 0.00 0.00
1.84 1.37 1.60 1.49 0.91 0.45 0.33 0.15 0.08 0.01 0.04 0.11 0.12 0.09 0.10 0.04 0.02 0.02 0.00 0.00 0.00 0.00 0.00 0.00 0.00 0.00 0.00 0.00 0.00 0.00 0.00 0.00 0.00 0.00 0.00 0.00 0.00 0.00 0.00 0.00 0.00 0.00 0.00 0.00 0.00
1.70 1.20 1.37 1.39 0.97 0.40 0.29 0.32 0.12 0.04 0.03 0.05 0.11 0.09 0.14 0.15 0.01 0.00 0.00 0.01 0.01 0.00 0.00 0.00 0.00 0.00 0.00 0.00 0.00 0.00 0.00 0.00 0.00 0.00 0.00 0.00 0.00 0.00 0.00 0.00 0.00 0.00 0.00 0.00 0.00
1.13 0.68 0.75 0.51 0.36 0.31 0.24 0.19 0.09 0.05 0.03 0.05 0.13 0.03 0.03 0.09 0.06 0.01 0.01 0.00 0.00 0.00 0.00 0.00 0.00 0.00 0.00 0.00 0.00 0.00 0.00 0.00 0.00 0.00 0.00 0.00 0.00 0.00 0.00 0.00 0.00 0.00 0.00 0.00 0.00
0.57 0.31 0.62 0.44 0.30 0.42 0.31 0.18 0.14 0.08 0.04 0.01 0.01 0.00 0.03 0.04 0.04 0.14 0.07 0.04 0.02 0.00 0.00 0.00 0.00 0.00 0.00 0.00 0.00 0.00 0.00 0.00 0.00 0.00 0.00 0.00 0.00 0.00 0.00 0.00 0.00 0.00 0.00 0.00 0.00

GFSSW_prec_precacc24_120.txt.gz
Total_Precipitation_Accumulation
0.02 0.02 0.03 0.03 0.03 0.03 0.03 0.02 0.02 0.01 0.01 0.01 0.01 0.00 0.00 0.00 0.00 0.00 0.00 0.00 0.00 0.00 0.00 0.00 0.00 0.00 0.00 0.00 0.00 0.00 0.00 0.00 0.00 0.00 0.00 0.00 0.00 0.00 0.00 0.00 0.00 0.00 0.00 0.00 0.00
0.02 0.01 0.02 0.03 0.03 0.02 0.03 0.03 0.03 0.01 0.01 0.02 0.03 0.02 0.00 0.00 0.00 0.00 0.00 0.00 0.00 0.00 0.00 0.00 0.00 0.00 0.00 0.00 0.00 0.00 0.00 0.00 0.00 0.00 0.00 0.00 0.00 0.00 0.00 0.00 0.00 0.00 0.00 0.00 0.00
0.03 0.02 0.02 0.02 0.03 0.03 0.03 0.03 0.04 0.03 0.01 0.02 0.03 0.05 0.02 0.00 0.00 0.00 0.00 0.00 0.00 0.00 0.00 0.00 0.00 0.00 0.00 0.00 0.00 0.00 0.00 0.00 0.00 0.00 0.00 0.00 0.00 0.00 0.00 0.00 0.00 0.00 0.00 0.00 0.00
0.07 0.06 0.04 0.03 0.04 0.04 0.04 0.05 0.07 0.08 0.06 0.02 0.02 0.06 0.07 0.00 0.00 0.00 0.00 0.00 0.00 0.00 0.00 0.00 0.00 0.00 0.00 0.00 0.00 0.00 0.00 0.00 0.00 0.00 0.00 0.00 0.00 0.00 0.00 0.00 0.00 0.00 0.00 0.00 0.00
0.06 0.09 0.11 0.07 0.05 0.05 0.05 0.05 0.06 0.07 0.07 0.04 0.02 0.09 0.13 0.02 0.00 0.00 0.00 0.00 0.00 0.00 0.00 0.00 0.00 0.00 0.00 0.00 0.00 0.00 0.00 0.00 0.00 0.00 0.00 0.00 0.00 0.00 0.00 0.00 0.00 0.00 0.00 0.00 0.00
0.10 0.13 0.10 0.12 0.14 0.13 0.07 0.06 0.08 0.11 0.10 0.06 0.05 0.10 0.12 0.03 0.00 0.00 0.00 0.00 0.00 0.00 0.00 0.00 0.00 0.00 0.00 0.00 0.00 0.00 0.00 0.00 0.00 0.00 0.00 0.00 0.00 0.00 0.00 0.00 0.00 0.00 0.00 0.00 0.00
0.07 0.11 0.18 0.18 0.10 0.11 0.18 0.21 0.14 0.07 0.09 0.07 0.08 0.12 0.11 0.02 0.00 0.00 0.00 0.00 0.00 0.00 0.00 0.00 0.00 0.00 0.00 0.00 0.00 0.00 0.00 0.00 0.00 0.00 0.00 0.00 0.00 0.00 0.00 0.00 0.00 0.00 0.00 0.00 0.00
0.09 0.08 0.13 0.15 0.24 0.27 0.17 0.11 0.21 0.25 0.17 0.09 0.08 0.12 0.11 0.00 0.00 0.00 0.00 0.00 0.00 0.00 0.00 0.00 0.00 0.00 0.00 0.00 0.00 0.00 0.00 0.00 0.00 0.00 0.00 0.00 0.00 0.00 0.00 0.00 0.00 0.00 0.00 0.00 0.00
0.13 0.13 0.12 0.13 0.16 0.20 0.23 0.25 0.19 0.15 0.22 0.27 0.28 0.20 0.07 0.00 0.00 0.00 0.00 0.00 0.00 0.00 0.00 0.00 0.00 0.00 0.00 0.00 0.00 0.00 0.00 0.00 0.00 0.00 0.00 0.00 0.00 0.00 0.00 0.00 0.00 0.00 0.00 0.00 0.00
0.16 0.15 0.14 0.13 0.19 0.34 0.38 0.35 0.29 0.29 0.21 0.31 0.43 0.54 0.12 0.00 0.00 0.00 0.00 0.00 0.00 0.00 0.00 0.00 0.00 0.00 0.00 0.00 0.00 0.00 0.00 0.00 0.00 0.00 0.00 0.00 0.00 0.00 0.00 0.00 0.00 0.00 0.00 0.00 0.00
0.15 0.19 0.20 0.23 0.27 0.45 0.74 0.80 0.85 0.74 0.59 0.26 0.17 0.10 0.00 0.00 0.00 0.00 0.00 0.00 0.00 0.00 0.00 0.00 0.00 0.00 0.00 0.00 0.00 0.00 0.00 0.00 0.00 0.00 0.00 0.00 0.00 0.00 0.00 0.00 0.00 0.00 0.00 0.00 0.00
0.20 0.24 0.32 0.39 0.36 0.50 0.72 0.63 0.41 0.54 0.31 0.13 0.05 0.03 0.00 0.00 0.00 0.00 0.00 0.00 0.00 0.00 0.00 0.00 0.00 0.00 0.00 0.00 0.00 0.00 0.00 0.00 0.00 0.00 0.00 0.00 0.00 0.00 0.00 0.00 0.00 0.00 0.00 0.00 0.00
0.26 0.26 0.30 0.45 0.65 0.74 0.60 0.35 0.28 0.40 0.44 0.10 0.05 0.03 0.01 0.01 0.00 0.00 0.00 0.00 0.00 0.00 0.00 0.00 0.00 0.00 0.00 0.00 0.00 0.00 0.00 0.00 0.00 0.00 0.00 0.00 0.00 0.00 0.00 0.00 0.00 0.00 0.00 0.00 0.00
0.26 0.36 0.40 0.54 0.93 0.68 0.57 0.42 0.41 0.79 1.04 0.26 0.02 0.03 0.01 0.04 0.05 0.00 0.00 0.00 0.00 0.00 0.00 0.00 0.00 0.00 0.00 0.00 0.00 0.00 0.00 0.00 0.00 0.00 0.00 0.00 0.00 0.00 0.00 0.00 0.00 0.00 0.00 0.00 0.00
0.51 0.42 0.55 0.87 0.70 0.68 0.52 0.50 0.77 1.41 1.95 0.28 0.00 0.00 0.00 0.08 0.06 0.00 0.00 0.00 0.00 0.00 0.00 0.00 0.00 0.00 0.00 0.00 0.00 0.00 0.00 0.00 0.00 0.00 0.00 0.00 0.00 0.00 0.00 0.00 0.00 0.00 0.00 0.00 0.00
0.48 0.72 0.65 0.72 0.78 0.38 0.47 1.14 1.66 2.09 1.97 0.28 0.08 0.02 0.02 0.01 0.00 0.00 0.01 0.00 0.00 0.00 0.00 0.00 0.00 0.00 0.00 0.00 0.00 0.00 0.00 0.00 0.00 0.00 0.00 0.00 0.00 0.00 0.00 0.00 0.00 0.00 0.00 0.00 0.00
0.64 0.63 0.90 0.73 0.67 0.57 1.09 2.08 2.41 1.91 0.61 0.27 0.11 0.16 0.08 0.01 0.00 0.03 0.07 0.04 0.00 0.06 0.11 0.01 0.00 0.00 0.00 0.00 0.00 0.00 0.00 0.00 0.00 0.00 0.00 0.00 0.00 0.00 0.00 0.00 0.00 0.00 0.00 0.00 0.00
0.60 0.79 0.73 0.70 0.58 1.04 1.77 2.25 2.35 0.58 0.17 0.13 0.13 0.14 0.20 0.12 0.03 0.01 0.10 0.13 0.01 0.00 0.01 0.00 0.00 0.00 0.00 0.00 0.00 0.00 0.00 0.00 0.00 0.00 0.00 0.00 0.00 0.00 0.00 0.00 0.00 0.00 0.00 0.00 0.00
0.49 0.83 0.96 0.65 0.63 1.42 2.18 2.32 1.23 0.22 0.03 0.04 0.07 0.25 0.17 0.20 0.16 0.08 0.08 0.09 0.02 0.00 0.00 0.00 0.00 0.00 0.00 0.00 0.00 0.00 0.00 0.00 0.00 0.00 0.00 0.00 0.00 0.00 0.00 0.00 0.00 0.00 0.00 0.00 0.00
0.89 0.89 1.11 0.88 0.93 1.57 2.10 1.56 0.46 0.05 0.03 0.05 0.19 0.24 0.41 0.23 0.31 0.23 0.14 0.05 0.02 0.00 0.00 0.00 0.00 0.00 0.00 0.00 0.00 0.00 0.00 0.00 0.00 0.00 0.00 0.00 0.00 0.00 0.00 0.00 0.00 0.00 0.00 0.00 0.00
1.16 1.20 0.86 1.12 1.36 1.77 1.91 0.66 0.10 0.01 0.07 0.20 0.12 0.19 0.24 0.43 0.61 0.51 0.28 0.02 0.00 0.00 0.00 0.00 0.00 0.00 0.00 0.00 0.00 0.00 0.00 0.00 0.00 0.00 0.00 0.00 0.00 0.00 0.00 0.00 0.00 0.00 0.00 0.00 0.00
1.27 1.29 1.04 1.47 2.24 1.84 0.94 0.13 0.03 0.01 0.06 0.13 0.14 0.11 0.09 0.20 0.64 0.76 0.42 0.11 0.01 0.00 0.00 0.00 0.04 0.01 0.00 0.00 0.00 0.00 0.00 0.00 0.00 0.00 0.00 0.00 0.00 0.00 0.00 0.00 0.00 0.00 0.00 0.00 0.00
1.28 0.97 1.14 1.07 1.78 1.36 0.50 0.11 0.06 0.05 0.12 0.21 0.14 0.06 0.02 0.11 0.53 0.51 0.51 0.19 0.04 0.02 0.00 0.00 0.12 0.18 0.07 0.05 0.01 0.00 0.00 0.00 0.00 0.00 0.00 0.00 0.00 0.00 0.00 0.00 0.00 0.00 0.00 0.00 0.00
1.67 1.24 1.54 1.54 0.96 0.50 0.40 0.24 0.16 0.05 0.06 0.11 0.12 0.10 0.13 0.09 0.21 0.22 0.20 0.25 0.17 0.21 0.04 0.00 0.21 0.22 0.09 0.08 0.03 0.01 0.00 0.00 0.00 0.00 0.00 0.00 0.00 0.00 0.00 0.00 0.00 0.00 0.00 0.00 0.00
1.52 1.16 1.35 1.42 1.01 0.47 0.52 0.43 0.14 0.08 0.06 0.07 0.13 0.09 0.16 0.21 0.05 0.13 0.12 0.32 0.36 0.46 0.18 0.09 0.41 0.19 0.01 0.00 0.00 0.00 0.00 0.00 0.00 0.00 0.00 0.00 0.00 0.00 0.00 0.00 0.00 0.00 0.00 0.00 0.00
1.07 0.70 0.79 0.54 0.37 0.31 0.25 0.20 0.10 0.07 0.08 0.09 0.16 0.04 0.05 0.16 0.10 0.06 0.24 0.41 0.58 0.53 0.38 0.34 0.50 0.23 0.09 0.02 0.00 0.00 0.00 0.00 0.00 0.00 0.00 0.00 0.00 0.00 0.00 0.00 0.00 0.00 0.00 0.00 0.00
0.58 0.34 0.72 0.49 0.30 0.42 0.31 0.18 0.14 0.12 0.06 0.03 0.05 0.05 0.04 0.04 0.06 0.25 0.25 0.35 0.49 0.62 0.69 0.71 0.41 0.06 0.12 0.11 0.12 0.09 0.00 0.00 0.00 0.00 0.00 0.00 0.00 0.00 0.00 0.00 0.00 0.00 0.00 0.00 0.00

GFSSW_prec_precacc24_123.txt.gz
Total_Precipitation_Accumulation
0.03 0.03 0.03 0.03 0.03 0.03 0.03 0.02 0.02 0.01 0.02 0.01 0.01 0.02 0.02 0.01 0.00 0.00 0.00 0.00 0.00 0.00 0.00 0.00 0.00 0.00 0.00 0.00 0.00 0.00 0.00 0.00 0.00 0.00 0.00 0.00 0.00 0.00 0.00 0.00 0.00 0.00 0.00 0.00 0.00
0.02 0.02 0.03 0.04 0.04 0.03 0.03 0.04 0.03 0.02 0.01 0.02 0.03 0.03 0.03 0.02 0.00 0.00 0.00 0.00 0.00 0.00 0.00 0.00 0.00 0.00 0.00 0.00 0.00 0.00 0.00 0.00 0.00 0.00 0.00 0.00 0.00 0.00 0.00 0.00 0.00 0.00 0.00 0.00 0.00
0.03 0.03 0.03 0.04 0.04 0.03 0.03 0.04 0.04 0.03 0.02 0.02 0.04 0.05 0.06 0.04 0.00 0.00 0.00 0.00 0.00 0.00 0.00 0.00 0.00 0.00 0.00 0.00 0.00 0.00 0.00 0.00 0.00 0.00 0.00 0.00 0.00 0.00 0.00 0.00 0.00 0.00 0.00 0.00 0.00
0.07 0.06 0.05 0.04 0.05 0.05 0.04 0.05 0.07 0.08 0.06 0.03 0.03 0.06 0.09 0.05 0.02 0.00 0.00 0.00 0.00 0.00 0.00 0.00 0.00 0.00 0.00 0.00 0.00 0.00 0.00 0.00 0.00 0.00 0.00 0.00 0.00 0.00 0.00 0.00 0.00 0.00 0.00 0.00 0.00
0.06 0.09 0.11 0.08 0.06 0.06 0.05 0.05 0.06 0.08 0.07 0.04 0.03 0.10 0.15 0.06 0.01 0.00 0.00 0.00 0.00 0.00 0.00 0.00 0.00 0.00 0.00 0.00 0.00 0.00 0.00 0.00 0.00 0.00 0.00 0.00 0.00 0.00 0.00 0.00 0.00 0.00 0.00 0.00 0.00
0.10 0.13 0.11 0.13 0.15 0.13 0.07 0.06 0.08 0.12 0.11 0.06 0.05 0.10 0.14 0.05 0.00 0.00 0.00 0.00 0.00 0.00 0.00 0.00 0.00 0.00 0.00 0.00 0.00 0.00 0.00 0.00 0.00 0.00 0.00 0.00 0.00 0.00 0.00 0.00 0.00 0.00 0.00 0.00 0.00
0.08 0.11 0.18 0.19 0.11 0.11 0.19 0.21 0.14 0.07 0.09 0.07 0.08 0.13 0.13 0.03 0.00 0.00 0.00 0.00 0.00 0.00 0.00 0.00 0.00 0.00 0.00 0.00 0.00 0.00 0.00 0.00 0.00 0.00 0.00 0.00 0.00 0.00 0.00 0.00 0.00 0.00 0.00 0.00 0.00
0.09 0.08 0.13 0.16 0.24 0.27 0.17 0.11 0.21 0.25 0.17 0.09 0.08 0.14 0.12 0.00 0.00 0.00 0.00 0.00 0.00 0.00 0.00 0.00 0.00 0.00 0.00 0.00 0.00 0.00 0.00 0.00 0.00 0.00 0.00 0.00 0.00 0.00 0.00 0.00 0.00 0.00 0.00 0.00 0.00
0.12 0.13 0.13 0.14 0.16 0.20 0.23 0.25 0.19 0.15 0.22 0.27 0.29 0.22 0.07 0.00 0.00 0.00 0.00 0.00 0.00 0.00 0.00 0.00 0.00 0.00 0.00 0.00 0.00 0.00 0.00 0.00 0.00 0.00 0.00 0.00 0.00 0.00 0.00 0.00 0.00 0.00 0.00 0.00 0.00
0.13 0.15 0.14 0.13 0.19 0.34 0.38 0.35 0.29 0.29 0.21 0.31 0.44 0.56 0.12 0.00 0.00 0.00 0.00 0.00 0.00 0.00 0.00 0.00 0.00 0.00 0.00 0.00 0.00 0.00 0.00 0.00 0.00 0.00 0.00 0.00 0.00 0.00 0.00 0.00 0.00 0.00 0.00 0.00 0.00
0.11 0.17 0.20 0.23 0.27 0.45 0.74 0.80 0.85 0.74 0.59 0.26 0.17 0.10 0.00 0.00 0.00 0.00 0.00 0.00 0.00 0.00 0.00 0.00 0.00 0.00 0.00 0.00 0.00 0.00 0.00 0.00 0.00 0.00 0.00 0.00 0.00 0.00 0.00 0.00 0.00 0.00 0.00 0.00 0.00
0.12 0.19 0.31 0.39 0.35 0.49 0.72 0.63 0.44 0.59 0.35 0.13 0.05 0.03 0.00 0.00 0.00 0.00 0.00 0.00 0.00 0.00 0.00 0.00 0.00 0.00 0.00 0.00 0.00 0.00 0.00 0.00 0.00 0.00 0.00 0.00 0.00 0.00 0.00 0.00 0.00 0.00 0.00 0.00 0.00
0.12 0.15 0.30 0.45 0.64 0.72 0.59 0.35 0.31 0.43 0.47 0.11 0.05 0.03 0.01 0.01 0.01 0.00 0.00 0.00 0.00 0.00 0.00 0.00 0.00 0.00 0.00 0.00 0.00 0.00 0.00 0.00 0.00 0.00 0.00 0.00 0.00 0.00 0.00 0.00 0.00 0.00 0.00 0.00 0.00
0.07 0.11 0.30 0.52 0.90 0.67 0.57 0.43 0.42 0.82 1.08 0.26 0.02 0.03 0.01 0.04 0.05 0.00 0.00 0.00 0.00 0.00 0.00 0.00 0.00 0.00 0.00 0.00 0.00 0.00 0.00 0.00 0.00 0.00 0.00 0.00 0.00 0.00 0.00 0.00 0.00 0.00 0.00 0.00 0.00
0.08 0.10 0.25 0.83 0.69 0.68 0.52 0.50 0.77 1.45 1.97 0.28 0.00 0.00 0.00 0.08 0.06 0.00 0.00 0.00 0.01 0.00 0.00 0.00 0.00 0.00 0.00 0.00 0.00 0.00 0.00 0.00 0.00 0.00 0.00 0.00 0.00 0.00 0.00 0.00 0.00 0.00 0.00 0.00 0.00
0.08 0.10 0.33 0.59 0.77 0.38 0.47 1.14 1.67 2.09 1.96 0.28 0.09 0.05 0.03 0.01 0.00 0.04 0.09 0.03 0.00 0.01 0.00 0.00 0.00 0.00 0.00 0.00 0.00 0.00 0.00 0.00 0.00 0.00 0.00 0.00 0.00 0.00 0.00 0.00 0.00 0.00 0.00 0.00 0.00
0.07 0.10 0.44 0.66 0.66 0.57 1.09 2.08 2.42 1.91 0.60 0.27 0.11 0.17 0.15 0.03 0.01 0.06 0.16 0.18 0.03 0.13 0.21 0.02 0.00 0.00 0.00 0.00 0.00 0.00 0.00 0.00 0.00 0.00 0.00 0.00 0.00 0.00 0.00 0.00 0.00 0.00 0.00 0.00 0.00
0.06 0.12 0.27 0.62 0.58 1.03 1.78 2.25 2.38 0.58 0.17 0.13 0.13 0.14 0.21 0.19 0.06 0.02 0.14 0.33 0.17 0.02 0.02 0.01 0.01 0.00 0.00 0.00 0.00 0.00 0.00 0.00 0.00 0.00 0.00 0.00 0.00 0.00 0.00 0.00 0.00 0.00 0.00 0.00 0.00
0.11 0.11 0.23 0.43 0.60 1.41 2.19 2.33 1.23 0.22 0.03 0.04 0.07 0.25 0.18 0.32 0.42 0.17 0.09 0.14 0.18 0.11 0.04 0.01 0.01 0.00 0.00 0.00 0.00 0.00 0.00 0.00 0.00 0.00 0.00 0.00 0.00 0.00 0.00 0.00 0.00 0.00 0.00 0.00 0.00
0.21 0.23 0.29 0.43 0.87 1.58 2.12 1.56 0.46 0.05 0.03 0.05 0.19 0.24 0.44 0.25 0.48 0.63 0.31 0.06 0.05 0.05 0.01 0.00 0.00 0.00 0.00 0.00 0.00 0.00 0.00 0.00 0.00 0.00 0.00 0.00 0.00 0.00 0.00 0.00 0.00 0.00 0.00 0.00 0.00
0.29 0.37 0.34 0.66 1.23 1.82 1.93 0.67 0.11 0.01 0.08 0.20 0.12 0.19 0.24 0.44 0.62 0.66 0.59 0.15 0.00 0.01 0.01 0.01 0.00 0.00 0.00 0.00 0.01 0.00 0.00 0.00 0.00 0.00 0.00 0.00 0.00 0.00 0.00 0.00 0.00 0.00 0.00 0.00 0.00
0.51 0.57 0.54 1.07 2.00 1.88 0.96 0.13 0.04 0.02 0.08 0.18 0.15 0.11 0.09 0.20 0.64 0.78 0.47 0.37 0.22 0.10 0.05 0.02 0.08 0.02 0.00 0.00 0.00 0.00 0.00 0.00 0.00 0.00 0.00 0.00 0.00 0.00 0.00 0.00 0.00 0.00 0.00 0.00 0.00
0.60 0.44 0.66 0.86 1.62 1.34 0.51 0.14 0.08 0.05 0.12 0.22 0.15 0.06 0.03 0.12 0.57 0.54 0.56 0.30 0.36 0.31 0.21 0.12 0.21 0.28 0.13 0.07 0.01 0.00 0.00 0.00 0.00 0.00 0.00 0.00 0.00 0.00 0.00 0.00 0.00 0.00 0.00 0.00 0.00
0.76 0.69 1.02 1.13 0.92 0.51 0.42 0.27 0.20 0.07 0.06 0.12 0.12 0.11 0.15 0.09 0.22 0.25 0.22 0.29 0.31 0.44 0.32 0.24 0.42 0.33 0.18 0.14 0.05 0.02 0.00 0.00 0.00 0.00 0.00 0.00 0.00 0.00 0.00 0.00 0.00 0.00 0.00 0.00 0.00
0.85 0.74 0.98 1.10 0.92 0.48 0.53 0.50 0.18 0.09 0.07 0.09 0.14 0.12 0.17 0.23 0.05 0.13 0.12 0.33 0.42 0.59 0.38 0.43 0.64 0.28 0.03 0.00 0.00 0.00 0.00 0.00 0.00 0.00 0.00 0.00 0.00 0.00 0.00 0.00 0.00 0.00 0.00 0.00 0.00
0.69 0.56 0.78 0.53 0.34 0.31 0.25 0.21 0.10 0.07 0.09 0.09 0.18 0.05 0.06 0.17 0.12 0.10 0.28 0.44 0.63 0.65 0.61 0.72 0.92 0.33 0.10 0.02 0.01 0.00 0.00 0.00 0.00 0.00 0.00 0.00 0.00 0.00 0.00 0.00 0.00 0.00 0.00 0.00 0.00
0.34 0.30 0.73 0.51 0.30 0.42 0.31 0.18 0.14 0.12 0.06 0.03 0.05 0.05 0.04 0.04 0.06 0.26 0.26 0.36 0.53 0.69 0.86 0.94 0.81 0.34 0.22 0.13 0.18 0.16 0.01 0.00 0.00 0.00 0.00 0.00 0.00 0.00 0.00 0.00 0.00 0.00 0.00 0.00 0.00

GFSSW_prec_precacc24_126.txt.gz
Total_Precipitation_Accumulation
0.03 0.03 0.04 0.04 0.04 0.04 0.03 0.03 0.02 0.02 0.02 0.02 0.02 0.02 0.02 0.01 0.00 0.00 0.00 0.00 0.00 0.00 0.00 0.00 0.00 0.00 0.00 0.00 0.00 0.00 0.00 0.00 0.00 0.00 0.00 0.00 0.00 0.00 0.00 0.00 0.00 0.00 0.00 0.00 0.00
0.02 0.02 0.03 0.04 0.05 0.04 0.04 0.04 0.03 0.02 0.02 0.02 0.03 0.03 0.03 0.03 0.00 0.00 0.00 0.00 0.00 0.00 0.00 0.00 0.00 0.00 0.00 0.00 0.00 0.00 0.00 0.00 0.00 0.00 0.00 0.00 0.00 0.00 0.00 0.00 0.00 0.00 0.00 0.00 0.00
0.03 0.03 0.03 0.04 0.05 0.04 0.04 0.05 0.05 0.03 0.02 0.03 0.04 0.06 0.07 0.05 0.01 0.00 0.00 0.00 0.00 0.00 0.00 0.00 0.00 0.00 0.00 0.00 0.00 0.00 0.00 0.00 0.00 0.00 0.00 0.00 0.00 0.00 0.00 0.00 0.00 0.00 0.00 0.00 0.00
0.06 0.06 0.05 0.04 0.05 0.05 0.05 0.06 0.08 0.09 0.06 0.03 0.03 0.07 0.10 0.06 0.03 0.00 0.00 0.00 0.00 0.00 0.00 0.00 0.00 0.00 0.00 0.00 0.00 0.00 0.00 0.00 0.00 0.00 0.00 0.00 0.00 0.00 0.00 0.00 0.00 0.00 0.00 0.00 0.00
0.05 0.09 0.12 0.08 0.06 0.06 0.06 0.05 0.06 0.08 0.07 0.05 0.03 0.11 0.16 0.07 0.02 0.00 0.00 0.00 0.00 0.00 0.00 0.00 0.00 0.00 0.00 0.00 0.00 0.00 0.00 0.00 0.00 0.00 0.00 0.00 0.00 0.00 0.00 0.00 0.00 0.00 0.00 0.00 0.00
0.05 0.12 0.11 0.13 0.15 0.13 0.07 0.06 0.08 0.12 0.11 0.06 0.05 0.12 0.16 0.06 0.00 0.00 0.00 0.00 0.00 0.00 0.00 0.00 0.00 0.00 0.00 0.00 0.00 0.00 0.00 0.00 0.00 0.00 0.00 0.00 0.00 0.00 0.00 0.00 0.00 0.00 0.00 0.00 0.00
0.05 0.09 0.17 0.18 0.11 0.11 0.18 0.21 0.14 0.07 0.09 0.08 0.09 0.15 0.14 0.03 0.00 0.00 0.00 0.00 0.00 0.00 0.00 0.00 0.00 0.00 0.00 0.00 0.00 0.00 0.00 0.00 0.00 0.00 0.00 0.00 0.00 0.00 0.00 0.00 0.00 0.00 0.00 0.00 0.00
0.06 0.06 0.10 0.14 0.24 0.27 0.17 0.10 0.21 0.25 0.17 0.09 0.09 0.16 0.13 0.00 0.00 0.00 0.00 0.00 0.00 0.00 0.00 0.00 0.00 0.00 0.00 0.00 0.00 0.00 0.00 0.00 0.00 0.00 0.00 0.00 0.00 0.00 0.00 0.00 0.00 0.00 0.00 0.00 0.00
0.08 0.09 0.10 0.12 0.15 0.20 0.23 0.24 0.19 0.15 0.22 0.27 0.29 0.24 0.08 0.00 0.00 0.00 0.00 0.00 0.00 0.00 0.00 0.00 0.00 0.00 0.00 0.00 0.00 0.00 0.00 0.00 0.00 0.00 0.00 0.00 0.00 0.00 0.00 0.00 0.00 0.00 0.00 0.00 0.00
0.06 0.09 0.10 0.12 0.18 0.34 0.37 0.35 0.29 0.29 0.21 0.31 0.44 0.57 0.12 0.00 0.00 0.00 0.00 0.00 0.00 0.00 0.00 0.00 0.00 0.00 0.00 0.00 0.00 0.00 0.00 0.00 0.00 0.00 0.00 0.00 0.00 0.00 0.00 0.00 0.00 0.00 0.00 0.00 0.00
0.05 0.07 0.10 0.18 0.25 0.43 0.73 0.80 0.85 0.75 0.60 0.26 0.18 0.10 0.00 0.00 0.00 0.00 0.00 0.00 0.00 0.02 0.01 0.00 0.01 0.00 0.00 0.00 0.00 0.00 0.00 0.00 0.00 0.00 0.00 0.00 0.00 0.00 0.00 0.00 0.00 0.00 0.00 0.00 0.00
0.09 0.07 0.09 0.18 0.32 0.48 0.71 0.63 0.45 0.62 0.38 0.13 0.05 0.03 0.00 0.00 0.00 0.00 0.02 0.04 0.01 0.01 0.00 0.01 0.03 0.00 0.00 0.00 0.00 0.00 0.00 0.00 0.00 0.00 0.00 0.00 0.00 0.00 0.00 0.00 0.00 0.00 0.00 0.00 0.00
0.08 0.08 0.09 0.13 0.45 0.68 0.59 0.35 0.32 0.44 0.49 0.11 0.05 0.03 0.01 0.01 0.01 0.00 0.01 0.05 0.02 0.00 0.00 0.00 0.02 0.00 0.00 0.00 0.00 0.00 0.00 0.00 0.00 0.00 0.00 0.00 0.00 0.00 0.00 0.00 0.00 0.00 0.00 0.00 0.00
0.04 0.05 0.09 0.17 0.33 0.58 0.56 0.43 0.42 0.82 1.09 0.26 0.02 0.03 0.01 0.04 0.05 0.00 0.00 0.04 0.05 0.01 0.00 0.01 0.00 0.00 0.00 0.00 0.00 0.00 0.00 0.00 0.00 0.00 0.00 0.00 0.00 0.00 0.00 0.00 0.00 0.00 0.00 0.00 0.00
0.06 0.06 0.08 0.28 0.22 0.59 0.52 0.50 0.77 1.45 1.90 0.27 0.00 0.00 0.00 0.08 0.06 0.00 0.01 0.06 0.08 0.01 0.03 0.02 0.00 0.00 0.00 0.00 0.00 0.00 0.00 0.00 0.00 0.00 0.00 0.00 0.00 0.00 0.00 0.00 0.00 0.00 0.00 0.00 0.00
0.06 0.05 0.08 0.12 0.16 0.26 0.47 1.13 1.66 2.05 1.90 0.28 0.10 0.06 0.05 0.02 0.00 0.04 0.14 0.11 0.13 0.06 0.04 0.00 0.00 0.00 0.00 0.00 0.00 0.00 0.00 0.00 0.00 0.00 0.01 0.00 0.00 0.00 0.00 0.00 0.00 0.00 0.00 0.00 0.00
0.06 0.03 0.05 0.11 0.14 0.41 1.05 1.95 2.34 1.85 0.60 0.27 0.11 0.17 0.16 0.03 0.01 0.06 0.21 0.28 0.14 0.28 0.31 0.03 0.01 0.00 0.00 0.00 0.00 0.00 0.00 0.04 0.04 0.01 0.01 0.00 0.00 0.00 0.00 0.00 0.00 0.00 0.00 0.00 0.00
0.05 0.02 0.01 0.03 0.06 0.70 1.61 2.12 2.29 0.57 0.17 0.13 0.13 0.14 0.21 0.20 0.09 0.07 0.16 0.42 0.28 0.10 0.11 0.02 0.02 0.00 0.00 0.01 0.02 0.00 0.00 0.04 0.04 0.01 0.00 0.00 0.00 0.00 0.00 0.00 0.00 0.00 0.00 0.00 0.00
0.09 0.03 0.03 0.01 0.09 0.86 1.81 2.04 1.17 0.22 0.03 0.04 0.07 0.25 0.18 0.37 0.50 0.24 0.12 0.17 0.50 0.33 0.12 0.04 0.01 0.00 0.00 0.00 0.00 0.00 0.00 0.00 0.00 0.00 0.00 0.00 0.00 0.00 0.00 0.00 0.00 0.00 0.00 0.00 0.00
0.17 0.09 0.01 0.00 0.21 1.15 1.86 1.31 0.44 0.05 0.03 0.05 0.20 0.24 0.44 0.26 0.52 0.71 0.33 0.06 0.10 0.48 0.32 0.11 0.01 0.00 0.00 0.00 0.00 0.00 0.00 0.00 0.03 0.04 0.00 0.00 0.00 0.00 0.00 0.00 0.00 0.00 0.00 0.00 0.00
0.18 0.17 0.01 0.14 0.53 1.30 1.64 0.55 0.10 0.01 0.08 0.20 0.13 0.19 0.24 0.44 0.63 0.71 0.63 0.16 0.04 0.07 0.40 0.67 0.23 0.02 0.00 0.02 0.01 0.01 0.00 0.01 0.03 0.01 0.00 0.00 0.00 0.00 0.00 0.00 0.00 0.00 0.00 0.00 0.00
0.31 0.32 0.12 0.54 0.96 1.16 0.73 0.11 0.04 0.02 0.08 0.21 0.23 0.14 0.10 0.20 0.65 0.79 0.48 0.38 0.26 0.16 0.08 0.26 0.57 0.19 0.03 0.01 0.00 0.00 0.00 0.01 0.02 0.02 0.00 0.00 0.00 0.00 0.00 0.00 0.00 0.00 0.00 0.00 0.00
0.39 0.17 0.10 0.46 0.91 0.81 0.40 0.13 0.08 0.05 0.12 0.22 0.16 0.07 0.03 0.13 0.61 0.56 0.59 0.38 0.50 0.40 0.27 0.18 0.42 0.55 0.23 0.13 0.04 0.06 0.03 0.00 0.00 0.00 0.00 0.00 0.00 0.00 0.00 0.00 0.00 0.00 0.00 0.00 0.00
0.56 0.28 0.20 0.54 0.66 0.39 0.37 0.26 0.21 0.09 0.08 0.14 0.13 0.12 0.16 0.10 0.24 0.28 0.23 0.31 0.33 0.46 0.37 0.31 0.52 0.49 0.27 0.19 0.09 0.05 0.02 0.03 0.09 0.04 0.00 0.00 0.00 0.00 0.00 0.00 0.00 0.00 0.00 0.00 0.00
0.59 0.31 0.17 0.43 0.61 0.44 0.54 0.50 0.18 0.09 0.07 0.12 0.16 0.15 0.28 0.28 0.06 0.14 0.13 0.33 0.42 0.60 0.44 0.51 0.67 0.34 0.06 0.00 0.00 0.01 0.00 0.00 0.02 0.04 0.00 0.00 0.00 0.00 0.00 0.00 0.00 0.00 0.00 0.00 0.00
0.46 0.30 0.35 0.25 0.22 0.29 0.23 0.19 0.09 0.07 0.09 0.09 0.19 0.05 0.09 0.20 0.13 0.11 0.29 0.45 0.64 0.69 0.84 0.95 0.96 0.35 0.12 0.03 0.02 0.01 0.00 0.00 0.00 0.00 0.00 0.00 0.00 0.00 0.00 0.00 0.00 0.00 0.00 0.00 0.00
0.20 0.19 0.50 0.35 0.19 0.39 0.29 0.17 0.14 0.12 0.06 0.03 0.05 0.05 0.04 0.04 0.06 0.26 0.26 0.36 0.53 0.69 0.89 1.00 0.88 0.40 0.24 0.13 0.21 0.23 0.02 0.00 0.00 0.00 0.00 0.00 0.00 0.00 0.00 0.00 0.00 0.00 0.00 0.00 0.00

GFSSW_prec_precacc24_129.txt.gz
Total_Precipitation_Accumulation
0.02 0.03 0.04 0.04 0.05 0.05 0.04 0.04 0.03 0.02 0.02 0.02 0.02 0.02 0.03 0.02 0.01 0.00 0.00 0.00 0.00 0.00 0.00 0.00 0.00 0.00 0.00 0.00 0.00 0.00 0.00 0.00 0.00 0.00 0.00 0.00 0.00 0.00 0.00 0.00 0.00 0.00 0.00 0.00 0.00
0.01 0.02 0.03 0.04 0.05 0.04 0.04 0.05 0.04 0.03 0.02 0.03 0.04 0.04 0.04 0.03 0.01 0.00 0.00 0.00 0.00 0.00 0.00 0.00 0.00 0.00 0.00 0.00 0.00 0.00 0.00 0.00 0.00 0.00 0.00 0.00 0.00 0.00 0.00 0.00 0.00 0.00 0.00 0.00 0.00
0.01 0.02 0.03 0.04 0.05 0.05 0.05 0.06 0.06 0.04 0.03 0.03 0.04 0.06 0.07 0.05 0.01 0.00 0.00 0.00 0.00 0.00 0.00 0.00 0.00 0.00 0.00 0.00 0.00 0.00 0.00 0.00 0.00 0.00 0.00 0.00 0.00 0.00 0.00 0.00 0.00 0.00 0.00 0.00 0.00
0.01 0.03 0.04 0.04 0.05 0.05 0.06 0.06 0.08 0.09 0.07 0.04 0.03 0.07 0.11 0.06 0.03 0.00 0.00 0.00 0.00 0.00 0.00 0.00 0.00 0.00 0.00 0.00 0.00 0.00 0.00 0.00 0.00 0.00 0.00 0.00 0.00 0.00 0.00 0.00 0.00 0.00 0.00 0.00 0.00
0.02 0.03 0.05 0.07 0.07 0.06 0.05 0.05 0.06 0.08 0.08 0.05 0.04 0.12 0.18 0.08 0.02 0.00 0.00 0.00 0.00 0.00 0.00 0.00 0.00 0.00 0.00 0.00 0.00 0.00 0.00 0.00 0.00 0.00 0.00 0.00 0.00 0.00 0.00 0.00 0.00 0.00 0.00 0.00 0.00
0.04 0.04 0.04 0.10 0.15 0.13 0.07 0.06 0.08 0.12 0.11 0.06 0.06 0.12 0.17 0.06 0.00 0.00 0.00 0.00 0.00 0.00 0.00 0.00 0.00 0.00 0.00 0.00 0.00 0.00 0.00 0.00 0.00 0.00 0.00 0.00 0.00 0.00 0.00 0.00 0.00 0.00 0.00 0.00 0.00
0.04 0.05 0.04 0.04 0.06 0.11 0.18 0.20 0.14 0.07 0.09 0.08 0.09 0.15 0.15 0.03 0.00 0.00 0.00 0.00 0.00 0.00 0.00 0.00 0.00 0.00 0.00 0.00 0.00 0.00 0.00 0.00 0.00 0.00 0.00 0.00 0.00 0.00 0.00 0.00 0.00 0.00 0.00 0.00 0.00
0.05 0.05 0.05 0.04 0.11 0.23 0.16 0.10 0.20 0.25 0.17 0.09 0.09 0.17 0.13 0.00 0.00 0.00 0.00 0.00 0.00 0.00 0.00 0.00 0.00 0.00 0.00 0.00 0.00 0.00 0.00 0.00 0.00 0.00 0.00 0.00 0.00 0.00 0.00 0.00 0.00 0.00 0.00 0.00 0.00
0.05 0.06 0.05 0.05 0.08 0.15 0.20 0.24 0.18 0.15 0.22 0.27 0.29 0.24 0.08 0.00 0.00 0.00 0.00 0.00 0.00 0.00 0.00 0.01 0.02 0.00 0.00 0.00 0.00 0.00 0.00 0.00 0.00 0.00 0.00 0.00 0.00 0.00 0.00 0.00 0.00 0.00 0.00 0.00 0.00
0.04 0.04 0.05 0.06 0.09 0.20 0.29 0.31 0.28 0.29 0.21 0.31 0.45 0.57 0.12 0.00 0.00 0.00 0.00 0.00 0.01 0.02 0.02 0.03 0.04 0.01 0.00 0.00 0.00 0.00 0.00 0.00 0.00 0.00 0.00 0.00 0.00 0.00 0.00 0.00 0.00 0.00 0.00 0.00 0.00
0.03 0.03 0.03 0.06 0.09 0.26 0.59 0.72 0.84 0.75 0.60 0.26 0.18 0.10 0.00 0.00 0.00 0.00 0.00 0.00 0.00 0.05 0.06 0.04 0.06 0.03 0.00 0.00 0.00 0.00 0.00 0.00 0.00 0.00 0.00 0.00 0.00 0.00 0.00 0.00 0.00 0.00 0.00 0.00 0.00
0.07 0.04 0.03 0.05 0.06 0.16 0.55 0.59 0.44 0.63 0.39 0.13 0.05 0.03 0.00 0.00 0.00 0.00 0.02 0.05 0.02 0.01 0.01 0.08 0.10 0.01 0.00 0.00 0.00 0.00 0.00 0.00 0.00 0.00 0.00 0.00 0.00 0.00 0.00 0.00 0.00 0.00 0.00 0.00 0.00
0.08 0.06 0.05 0.04 0.05 0.05 0.31 0.34 0.31 0.44 0.49 0.11 0.05 0.03 0.01 0.01 0.01 0.00 0.01 0.06 0.04 0.00 0.01 0.03 0.07 0.00 0.00 0.00 0.00 0.00 0.00 0.00 0.00 0.00 0.00 0.00 0.00 0.00 0.00 0.00 0.00 0.00 0.00 0.00 0.00
0.07 0.04 0.06 0.07 0.03 0.06 0.15 0.37 0.42 0.82 1.09 0.26 0.02 0.03 0.01 0.04 0.05 0.00 0.00 0.04 0.11 0.03 0.01 0.03 0.00 0.00 0.00 0.00 0.00 0.00 0.00 0.00 0.00 0.00 0.01 0.00 0.00 0.00 0.00 0.00 0.00 0.00 0.00 0.00 0.00
0.10 0.07 0.07 0.14 0.07 0.05 0.15 0.42 0.72 1.44 1.77 0.27 0.00 0.00 0.00 0.09 0.06 0.01 0.01 0.07 0.11 0.09 0.07 0.04 0.00 0.00 0.01 0.01 0.00 0.00 0.00 0.00 0.00 0.00 0.00 0.00 0.00 0.00 0.00 0.00 0.00 0.00 0.00 0.00 0.00
0.13 0.07 0.08 0.04 0.05 0.01 0.10 0.73 1.26 1.90 1.79 0.28 0.10 0.06 0.05 0.02 0.00 0.04 0.14 0.12 0.15 0.14 0.21 0.03 0.00 0.01 0.00 0.00 0.00 0.00 0.00 0.00 0.00 0.01 0.12 0.02 0.00 0.00 0.00 0.00 0.00 0.00 0.00 0.00 0.00
0.13 0.06 0.06 0.06 0.03 0.03 0.33 1.09 1.54 1.54 0.58 0.27 0.11 0.17 0.16 0.03 0.01 0.07 0.21 0.30 0.15 0.50 0.47 0.23 0.03 0.01 0.03 0.02 0.00 0.04 0.12 0.22 0.20 0.13 0.10 0.00 0.00 0.00 0.00 0.00 0.00 0.00 0.00 0.00 0.00
0.12 0.05 0.02 0.01 0.01 0.07 0.54 1.32 1.64 0.41 0.17 0.13 0.13 0.14 0.21 0.21 0.10 0.07 0.17 0.42 0.30 0.20 0.40 0.16 0.10 0.01 0.03 0.03 0.04 0.03 0.10 0.19 0.12 0.06 0.00 0.00 0.00 0.00 0.00 0.00 0.00 0.00 0.00 0.00 0.00
0.13 0.04 0.02 0.01 0.02 0.27 0.74 1.20 0.75 0.17 0.03 0.04 0.07 0.25 0.18 0.39 0.50 0.24 0.13 0.18 0.53 0.46 0.58 0.48 0.08 0.00 0.00 0.00 0.01 0.01 0.01 0.00 0.01 0.00 0.00 0.00 0.00 0.00 0.00 0.00 0.00 0.00 0.00 0.00 0.00
0.17 0.10 0.01 0.00 0.10 0.52 1.03 0.73 0.21 0.03 0.03 0.05 0.20 0.24 0.44 0.26 0.52 0.71 0.33 0.06 0.11 0.53 0.72 0.54 0.33 0.02 0.00 0.02 0.01 0.01 0.00 0.01 0.09 0.14 0.00 0.00 0.00 0.00 0.00 0.00 0.00 0.00 0.00 0.00 0.00
0.17 0.17 0.01 0.13 0.34 0.61 0.93 0.34 0.06 0.01 0.08 0.20 0.13 0.19 0.24 0.44 0.63 0.71 0.63 0.16 0.04 0.08 0.52 0.94 0.55 0.11 0.03 0.05 0.02 0.02 0.03 0.05 0.13 0.06 0.00 0.00 0.00 0.00 0.00 0.00 0.00 0.00 0.00 0.00 0.00
0.31 0.32 0.12 0.48 0.64 0.57 0.32 0.06 0.03 0.02 0.08 0.21 0.24 0.15 0.10 0.20 0.66 0.79 0.48 0.39 0.27 0.17 0.12 0.42 0.87 0.39 0.13 0.03 0.01 0.00 0.00 0.02 0.11 0.10 0.00 0.00 0.00 0.00 0.00 0.00 0.00 0.00 0.00 0.00 0.00
0.36 0.17 0.11 0.35 0.52 0.46 0.29 0.12 0.08 0.05 0.12 0.22 0.16 0.08 0.05 0.15 0.65 0.57 0.61 0.40 0.52 0.42 0.29 0.21 0.56 0.70 0.45 0.31 0.11 0.09 0.03 0.01 0.00 0.00 0.00 0.00 0.00 0.00 0.00 0.00 0.00 0.00 0.00 0.00 0.00
0.42 0.18 0.26 0.53 0.34 0.29 0.36 0.26 0.20 0.09 0.08 0.16 0.16 0.14 0.17 0.11 0.25 0.32 0.25 0.32 0.34 0.48 0.41 0.34 0.54 0.56 0.40 0.50 0.39 0.24 0.09 0.05 0.10 0.05 0.01 0.00 0.00 0.00 0.00 0.00 0.00 0.00 0.00 0.00 0.00
0.47 0.17 0.15 0.31 0.30 0.29 0.53 0.51 0.17 0.08 0.06 0.13 0.18 0.18 0.30 0.41 0.10 0.14 0.13 0.33 0.42 0.61 0.49 0.66 0.73 0.38 0.07 0.01 0.12 0.15 0.14 0.05 0.06 0.06 0.00 0.00 0.00 0.00 0.00 0.00 0.00 0.00 0.00 0.00 0.00
0.41 0.18 0.25 0.18 0.09 0.14 0.18 0.15 0.08 0.07 0.09 0.09 0.19 0.05 0.09 0.21 0.14 0.12 0.29 0.45 0.64 0.69 0.85 1.07 1.07 0.37 0.12 0.03 0.02 0.03 0.06 0.09 0.07 0.02 0.00 0.00 0.00 0.00 0.00 0.00 0.00 0.00 0.00 0.00 0.00
0.21 0.12 0.36 0.22 0.11 0.22 0.18 0.11 0.11 0.12 0.06 0.03 0.06 0.06 0.04 0.04 0.06 0.26 0.26 0.36 0.53 0.69 0.89 1.01 0.88 0.41 0.24 0.13 0.21 0.23 0.02 0.03 0.05 0.02 0.01 0.00 0.00 0.00 0.00 0.00 0.00 0.00 0.00 0.00 0.00

GFSSW_prec_precacc24_135.txt.gz
Total_Precipitation_Accumulation
0.00 0.01 0.02 0.02 0.03 0.04 0.05 0.04 0.04 0.03 0.03 0.02 0.03 0.03 0.03 0.03 0.01 0.00 0.00 0.00 0.00 0.00 0.00 0.00 0.00 0.00 0.00 0.00 0.00 0.00 0.00 0.00 0.00 0.00 0.00 0.00 0.00 0.00 0.00 0.00 0.00 0.00 0.00 0.00 0.00
0.01 0.01 0.02 0.03 0.03 0.03 0.04 0.05 0.04 0.03 0.03 0.03 0.04 0.04 0.04 0.04 0.01 0.00 0.00 0.00 0.00 0.00 0.00 0.00 0.00 0.01 0.00 0.00 0.00 0.00 0.00 0.00 0.00 0.00 0.00 0.00 0.00 0.00 0.00 0.00 0.00 0.00 0.00 0.00 0.00
0.01 0.01 0.02 0.03 0.03 0.03 0.04 0.06 0.06 0.04 0.03 0.04 0.05 0.07 0.08 0.06 0.01 0.00 0.00 0.00 0.00 0.00 0.00 0.00 0.00 0.03 0.01 0.00 0.00 0.00 0.00 0.00 0.00 0.00 0.00 0.00 0.00 0.00 0.00 0.00 0.00 0.00 0.00 0.00 0.00
0.00 0.01 0.02 0.02 0.03 0.03 0.04 0.05 0.08 0.09 0.07 0.04 0.04 0.08 0.11 0.07 0.03 0.00 0.00 0.00 0.00 0.00 0.00 0.00 0.00 0.02 0.01 0.00 0.00 0.00 0.00 0.00 0.00 0.00 0.00 0.00 0.00 0.00 0.00 0.00 0.00 0.00 0.00 0.00 0.00
0.01 0.02 0.02 0.02 0.03 0.03 0.02 0.03 0.06 0.08 0.07 0.05 0.04 0.12 0.18 0.08 0.02 0.00 0.00 0.00 0.00 0.00 0.02 0.01 0.01 0.01 0.01 0.00 0.00 0.00 0.00 0.00 0.00 0.00 0.00 0.00 0.00 0.00 0.00 0.00 0.00 0.00 0.00 0.00 0.00
0.03 0.03 0.03 0.03 0.02 0.02 0.01 0.02 0.06 0.12 0.11 0.06 0.06 0.12 0.17 0.06 0.00 0.00 0.00 0.00 0.00 0.00 0.01 0.04 0.03 0.02 0.01 0.01 0.00 0.00 0.00 0.00 0.00 0.00 0.00 0.00 0.00 0.00 0.00 0.00 0.00 0.00 0.00 0.00 0.00
0.05 0.04 0.04 0.03 0.03 0.01 0.01 0.01 0.02 0.05 0.09 0.08 0.09 0.16 0.15 0.03 0.00 0.00 0.00 0.00 0.00 0.00 0.00 0.00 0.02 0.06 0.02 0.01 0.00 0.00 0.00 0.00 0.00 0.00 0.00 0.00 0.00 0.00 0.00 0.00 0.00 0.00 0.00 0.00 0.00
0.06 0.05 0.04 0.03 0.03 0.01 0.01 0.00 0.00 0.13 0.15 0.09 0.09 0.17 0.14 0.00 0.00 0.00 0.00 0.00 0.00 0.00 0.00 0.00 0.00 0.02 0.03 0.02 0.00 0.00 0.00 0.00 0.00 0.00 0.00 0.00 0.00 0.00 0.00 0.00 0.00 0.00 0.00 0.00 0.00
0.08 0.07 0.06 0.04 0.02 0.01 0.01 0.00 0.00 0.06 0.20 0.27 0.29 0.25 0.08 0.00 0.00 0.00 0.00 0.00 0.00 0.00 0.00 0.01 0.05 0.08 0.07 0.06 0.04 0.01 0.00 0.00 0.00 0.00 0.00 0.00 0.00 0.00 0.00 0.00 0.00 0.00 0.00 0.00 0.00
0.10 0.10 0.14 0.09 0.03 0.01 0.01 0.00 0.00 0.06 0.12 0.28 0.45 0.58 0.12 0.00 0.00 0.00 0.00 0.00 0.01 0.02 0.02 0.04 0.08 0.09 0.14 0.12 0.07 0.00 0.00 0.00 0.00 0.00 0.00 0.00 0.00 0.00 0.00 0.00 0.00 0.00 0.00 0.00 0.00
0.16 0.19 0.19 0.12 0.04 0.02 0.01 0.00 0.05 0.15 0.38 0.22 0.17 0.10 0.00 0.00 0.00 0.00 0.00 0.00 0.00 0.05 0.06 0.05 0.11 0.08 0.05 0.06 0.01 0.00 0.00 0.00 0.00 0.00 0.00 0.00 0.00 0.00 0.00 0.00 0.00 0.00 0.00 0.00 0.00
0.26 0.26 0.26 0.16 0.07 0.03 0.01 0.00 0.18 0.41 0.26 0.12 0.05 0.03 0.00 0.00 0.00 0.00 0.02 0.05 0.02 0.02 0.01 0.10 0.14 0.02 0.01 0.02 0.03 0.01 0.00 0.00 0.00 0.00 0.00 0.00 0.00 0.00 0.00 0.00 0.00 0.00 0.00 0.00 0.00
0.33 0.39 0.40 0.21 0.09 0.03 0.01 0.04 0.13 0.24 0.33 0.05 0.03 0.03 0.01 0.01 0.01 0.00 0.01 0.06 0.04 0.01 0.01 0.04 0.08 0.00 0.03 0.03 0.04 0.03 0.01 0.01 0.01 0.00 0.00 0.00 0.00 0.00 0.00 0.00 0.00 0.00 0.00 0.00 0.00
0.38 0.42 0.40 0.26 0.12 0.06 0.10 0.15 0.13 0.43 0.65 0.09 0.00 0.01 0.01 0.04 0.05 0.00 0.00 0.04 0.11 0.03 0.01 0.04 0.00 0.03 0.06 0.05 0.06 0.06 0.01 0.02 0.02 0.02 0.02 0.00 0.00 0.00 0.00 0.00 0.00 0.00 0.00 0.00 0.00
0.48 0.55 0.44 0.26 0.09 0.08 0.08 0.08 0.12 0.50 0.82 0.09 0.00 0.00 0.00 0.09 0.06 0.01 0.01 0.07 0.11 0.09 0.11 0.05 0.00 0.01 0.05 0.04 0.06 0.05 0.04 0.05 0.02 0.04 0.02 0.01 0.00 0.00 0.00 0.00 0.00 0.00 0.00 0.00 0.00
0.43 0.44 0.40 0.21 0.12 0.10 0.02 0.04 0.15 0.59 0.56 0.12 0.10 0.06 0.05 0.02 0.00 0.04 0.14 0.12 0.15 0.14 0.25 0.09 0.00 0.01 0.02 0.02 0.07 0.05 0.09 0.11 0.14 0.12 0.39 0.08 0.00 0.00 0.00 0.00 0.00 0.00 0.00 0.00 0.00
0.49 0.43 0.33 0.17 0.21 0.08 0.11 0.14 0.30 0.43 0.14 0.17 0.11 0.17 0.16 0.03 0.01 0.07 0.21 0.30 0.16 0.53 0.48 0.30 0.06 0.01 0.05 0.09 0.11 0.28 0.34 0.59 0.73 0.79 0.54 0.01 0.00 0.00 0.00 0.00 0.00 0.00 0.00 0.00 0.00
0.55 0.46 0.34 0.26 0.15 0.04 0.18 0.31 0.45 0.08 0.03 0.11 0.13 0.14 0.21 0.21 0.10 0.07 0.17 0.42 0.30 0.25 0.47 0.30 0.18 0.03 0.06 0.07 0.12 0.26 0.69 0.66 0.40 0.37 0.09 0.00 0.00 0.00 0.00 0.00 0.00 0.00 0.00 0.00 0.00
0.45 0.36 0.35 0.28 0.12 0.14 0.26 0.36 0.13 0.02 0.02 0.04 0.07 0.25 0.18 0.39 0.50 0.24 0.13 0.18 0.54 0.54 0.72 0.66 0.18 0.04 0.02 0.00 0.04 0.10 0.41 0.51 0.18 0.09 0.01 0.00 0.00 0.00 0.00 0.00 0.00 0.00 0.00 0.00 0.00
0.27 0.36 0.35 0.24 0.19 0.36 0.49 0.23 0.01 0.01 0.01 0.05 0.20 0.24 0.44 0.25 0.52 0.71 0.33 0.06 0.11 0.57 0.85 0.68 0.47 0.07 0.07 0.07 0.06 0.04 0.07 0.24 0.74 0.60 0.12 0.00 0.00 0.00 0.00 0.00 0.00 0.00 0.00 0.00 0.00
0.35 0.44 0.29 0.36 0.39 0.55 0.49 0.17 0.04 0.01 0.02 0.14 0.12 0.19 0.24 0.44 0.63 0.72 0.64 0.16 0.07 0.15 0.61 1.05 0.66 0.16 0.19 0.29 0.10 0.09 0.15 0.26 0.50 0.32 0.13 0.06 0.00 0.00 0.00 0.00 0.00 0.00 0.00 0.00 0.00
0.47 0.48 0.24 0.50 0.77 0.59 0.16 0.04 0.04 0.02 0.03 0.11 0.19 0.13 0.10 0.21 0.67 0.80 0.49 0.41 0.32 0.22 0.17 0.50 1.01 0.43 0.23 0.28 0.21 0.12 0.08 0.11 0.45 0.39 0.06 0.05 0.00 0.00 0.00 0.00 0.00 0.00 0.00 0.00 0.00
0.58 0.31 0.32 0.34 0.42 0.46 0.31 0.15 0.10 0.04 0.01 0.08 0.10 0.08 0.06 0.18 0.73 0.59 0.63 0.45 0.55 0.46 0.39 0.33 0.71 0.75 0.47 0.51 0.44 0.50 0.16 0.06 0.05 0.06 0.05 0.02 0.00 0.00 0.00 0.00 0.00 0.00 0.00 0.00 0.00
0.68 0.36 0.52 0.68 0.16 0.19 0.38 0.32 0.23 0.09 0.04 0.06 0.09 0.15 0.23 0.16 0.30 0.43 0.30 0.33 0.35 0.49 0.42 0.52 0.70 0.67 0.49 0.89 0.99 0.95 0.74 0.33 0.28 0.16 0.07 0.02 0.00 0.00 0.00 0.00 0.00 0.00 0.00 0.00 0.00
0.68 0.26 0.09 0.32 0.19 0.16 0.47 0.47 0.16 0.08 0.05 0.09 0.09 0.14 0.33 0.41 0.12 0.17 0.14 0.34 0.42 0.61 0.50 0.81 0.85 0.48 0.14 0.09 0.27 0.40 0.65 0.55 0.49 0.27 0.06 0.03 0.00 0.00 0.00 0.00 0.00 0.00 0.00 0.00 0.00
0.61 0.26 0.19 0.16 0.10 0.19 0.22 0.11 0.05 0.08 0.10 0.05 0.07 0.03 0.09 0.21 0.13 0.12 0.29 0.45 0.64 0.69 0.85 1.07 1.07 0.38 0.12 0.03 0.05 0.10 0.15 0.29 0.35 0.15 0.02 0.00 0.00 0.00 0.00 0.00 0.00 0.00 0.00 0.00 0.00
0.39 0.25 0.39 0.43 0.18 0.23 0.13 0.06 0.13 0.18 0.09 0.02 0.05 0.05 0.03 0.04 0.06 0.26 0.26 0.36 0.53 0.69 0.89 1.01 0.88 0.41 0.24 0.13 0.21 0.24 0.04 0.08 0.17 0.12 0.02 0.00 0.00 0.00 0.00 0.00 0.00 0.00 0.00 0.00 0.00

GFSSW_prec_precacc24_138.txt.gz
Total_Precipitation_Accumulation
0.00 0.01 0.02 0.02 0.02 0.02 0.02 0.03 0.03 0.03 0.03 0.02 0.03 0.03 0.03 0.03 0.01 0.00 0.00 0.00 0.00 0.00 0.00 0.00 0.00 0.00 0.00 0.00 0.00 0.00 0.00 0.00 0.00 0.00 0.00 0.00 0.00 0.00 0.00 0.00 0.00 0.00 0.00 0.00 0.00
0.01 0.01 0.01 0.02 0.03 0.03 0.03 0.03 0.03 0.03 0.03 0.03 0.04 0.04 0.04 0.04 0.01 0.00 0.00 0.00 0.00 0.00 0.00 0.00 0.00 0.01 0.00 0.00 0.00 0.00 0.00 0.00 0.00 0.00 0.00 0.00 0.00 0.00 0.00 0.00 0.00 0.00 0.00 0.00 0.00
0.01 0.01 0.02 0.02 0.02 0.03 0.03 0.03 0.02 0.03 0.03 0.04 0.05 0.07 0.08 0.06 0.01 0.00 0.00 0.00 0.00 0.00 0.00 0.00 0.00 0.03 0.02 0.01 0.00 0.00 0.00 0.00 0.00 0.00 0.00 0.00 0.00 0.00 0.00 0.00 0.00 0.00 0.00 0.00 0.00
0.00 0.01 0.02 0.02 0.02 0.02 0.03 0.03 0.02 0.02 0.06 0.04 0.04 0.08 0.11 0.07 0.03 0.00 0.00 0.00 0.00 0.00 0.00 0.00 0.00 0.02 0.02 0.01 0.00 0.00 0.00 0.00 0.00 0.00 0.00 0.00 0.00 0.00 0.00 0.00 0.00 0.00 0.00 0.00 0.00
0.01 0.02 0.02 0.02 0.02 0.02 0.02 0.02 0.02 0.02 0.03 0.05 0.04 0.12 0.18 0.08 0.02 0.00 0.00 0.00 0.00 0.00 0.02 0.01 0.01 0.01 0.01 0.00 0.01 0.00 0.00 0.00 0.00 0.00 0.00 0.00 0.00 0.00 0.00 0.00 0.00 0.00 0.00 0.00 0.00
0.04 0.04 0.03 0.04 0.03 0.02 0.01 0.01 0.02 0.02 0.02 0.04 0.06 0.13 0.17 0.06 0.00 0.00 0.00 0.00 0.00 0.00 0.01 0.04 0.04 0.04 0.02 0.01 0.00 0.00 0.00 0.00 0.00 0.00 0.00 0.00 0.00 0.00 0.00 0.00 0.00 0.00 0.00 0.00 0.00
0.06 0.06 0.06 0.05 0.04 0.02 0.01 0.01 0.01 0.00 0.00 0.01 0.09 0.16 0.16 0.03 0.00 0.00 0.00 0.00 0.00 0.00 0.00 0.00 0.02 0.07 0.05 0.02 0.00 0.00 0.01 0.00 0.00 0.00 0.00 0.00 0.00 0.00 0.00 0.00 0.00 0.00 0.00 0.00 0.00
0.07 0.08 0.08 0.06 0.05 0.04 0.03 0.01 0.00 0.00 0.00 0.01 0.07 0.17 0.14 0.00 0.00 0.00 0.00 0.00 0.00 0.00 0.00 0.00 0.00 0.02 0.03 0.04 0.02 0.01 0.03 0.01 0.00 0.00 0.00 0.00 0.00 0.00 0.00 0.00 0.00 0.00 0.00 0.00 0.00
0.10 0.13 0.12 0.13 0.11 0.09 0.06 0.02 0.00 0.00 0.00 0.02 0.13 0.23 0.08 0.00 0.00 0.00 0.00 0.00 0.00 0.00 0.00 0.01 0.05 0.08 0.08 0.10 0.08 0.04 0.01 0.00 0.00 0.00 0.00 0.00 0.00 0.00 0.00 0.00 0.00 0.00 0.00 0.00 0.00
0.14 0.18 0.22 0.21 0.17 0.16 0.11 0.03 0.00 0.00 0.01 0.07 0.22 0.46 0.12 0.00 0.00 0.00 0.00 0.00 0.01 0.02 0.02 0.04 0.08 0.09 0.14 0.14 0.08 0.00 0.00 0.00 0.00 0.00 0.00 0.00 0.00 0.00 0.00 0.00 0.00 0.00 0.00 0.00 0.00
0.18 0.23 0.28 0.26 0.24 0.23 0.10 0.01 0.01 0.03 0.04 0.09 0.14 0.08 0.00 0.00 0.00 0.00 0.00 0.00 0.00 0.05 0.06 0.05 0.11 0.08 0.05 0.06 0.01 0.01 0.00 0.00 0.00 0.00 0.00 0.00 0.00 0.00 0.00 0.00 0.00 0.00 0.00 0.00 0.00
0.27 0.30 0.33 0.32 0.30 0.19 0.05 0.01 0.08 0.17 0.12 0.02 0.03 0.03 0.00 0.00 0.00 0.00 0.02 0.05 0.02 0.02 0.01 0.10 0.14 0.02 0.01 0.03 0.04 0.04 0.02 0.00 0.00 0.00 0.00 0.00 0.00 0.00 0.00 0.00 0.00 0.00 0.00 0.00 0.00
0.34 0.40 0.47 0.38 0.26 0.12 0.04 0.10 0.13 0.10 0.17 0.01 0.00 0.02 0.00 0.01 0.01 0.00 0.01 0.06 0.04 0.01 0.01 0.04 0.08 0.00 0.03 0.03 0.05 0.03 0.03 0.01 0.01 0.00 0.01 0.00 0.00 0.00 0.00 0.00 0.00 0.00 0.00 0.00 0.00
0.38 0.44 0.56 0.39 0.23 0.10 0.18 0.22 0.14 0.19 0.34 0.04 0.00 0.00 0.00 0.02 0.04 0.00 0.00 0.04 0.11 0.03 0.01 0.04 0.00 0.03 0.06 0.05 0.06 0.07 0.01 0.03 0.03 0.09 0.06 0.02 0.05 0.00 0.00 0.00 0.00 0.00 0.00 0.00 0.00
0.48 0.62 0.61 0.31 0.11 0.13 0.14 0.12 0.10 0.18 0.33 0.03 0.00 0.00 0.00 0.07 0.05 0.01 0.01 0.07 0.11 0.09 0.11 0.06 0.00 0.01 0.05 0.04 0.06 0.05 0.05 0.07 0.05 0.08 0.07 0.05 0.06 0.01 0.00 0.00 0.00 0.00 0.00 0.00 0.00
0.46 0.56 0.47 0.25 0.14 0.17 0.09 0.06 0.13 0.30 0.27 0.03 0.09 0.06 0.05 0.02 0.00 0.04 0.14 0.12 0.15 0.14 0.25 0.09 0.00 0.01 0.02 0.02 0.07 0.05 0.10 0.15 0.19 0.20 0.60 0.21 0.07 0.04 0.00 0.00 0.00 0.00 0.00 0.00 0.00
0.52 0.67 0.45 0.19 0.28 0.16 0.07 0.15 0.25 0.23 0.06 0.08 0.08 0.17 0.15 0.03 0.01 0.06 0.21 0.30 0.16 0.53 0.48 0.30 0.06 0.01 0.05 0.09 0.12 0.29 0.36 0.69 0.91 0.94 0.78 0.08 0.05 0.03 0.00 0.00 0.00 0.00 0.00 0.00 0.00
0.59 0.61 0.41 0.31 0.24 0.10 0.13 0.30 0.38 0.03 0.01 0.07 0.09 0.14 0.21 0.21 0.10 0.06 0.16 0.42 0.30 0.25 0.47 0.30 0.18 0.03 0.06 0.08 0.14 0.27 0.72 0.75 0.54 0.53 0.21 0.03 0.02 0.00 0.00 0.00 0.00 0.00 0.00 0.00 0.00
0.46 0.36 0.39 0.34 0.18 0.12 0.21 0.34 0.13 0.02 0.04 0.03 0.03 0.18 0.16 0.38 0.50 0.21 0.10 0.18 0.54 0.54 0.73 0.68 0.18 0.04 0.02 0.01 0.05 0.12 0.44 0.53 0.26 0.15 0.16 0.08 0.02 0.00 0.00 0.00 0.00 0.00 0.00 0.00 0.00
0.20 0.33 0.46 0.33 0.26 0.30 0.47 0.24 0.01 0.02 0.04 0.03 0.14 0.20 0.40 0.24 0.52 0.69 0.30 0.05 0.11 0.57 0.88 0.70 0.51 0.07 0.07 0.10 0.07 0.05 0.10 0.33 0.90 0.83 0.25 0.05 0.02 0.00 0.00 0.00 0.00 0.00 0.00 0.00 0.00
0.30 0.46 0.49 0.48 0.41 0.48 0.44 0.16 0.04 0.02 0.04 0.03 0.06 0.14 0.23 0.43 0.63 0.71 0.64 0.16 0.07 0.15 0.64 1.11 0.75 0.17 0.19 0.31 0.16 0.16 0.19 0.31 0.65 0.45 0.27 0.14 0.01 0.00 0.00 0.00 0.00 0.00 0.00 0.00 0.00
0.45 0.57 0.41 0.45 0.73 0.55 0.11 0.05 0.05 0.03 0.04 0.09 0.10 0.07 0.05 0.19 0.66 0.79 0.49 0.42 0.33 0.22 0.17 0.52 1.10 0.46 0.24 0.28 0.25 0.18 0.18 0.30 0.61 0.50 0.12 0.14 0.08 0.01 0.01 0.01 0.00 0.00 0.00 0.00 0.00
0.58 0.41 0.54 0.39 0.34 0.31 0.30 0.15 0.10 0.04 0.03 0.04 0.03 0.03 0.05 0.15 0.65 0.58 0.63 0.46 0.56 0.47 0.39 0.33 0.77 0.85 0.48 0.59 0.47 0.51 0.18 0.16 0.19 0.12 0.18 0.13 0.08 0.01 0.01 0.01 0.00 0.00 0.00 0.00 0.00
0.55 0.39 0.58 0.67 0.15 0.10 0.20 0.23 0.20 0.10 0.06 0.07 0.06 0.07 0.14 0.12 0.29 0.42 0.31 0.33 0.35 0.48 0.42 0.54 0.72 0.71 0.54 0.99 1.09 0.97 0.74 0.35 0.37 0.23 0.12 0.10 0.04 0.08 0.03 0.01 0.00 0.00 0.00 0.00 0.00
0.63 0.29 0.10 0.36 0.17 0.15 0.43 0.37 0.11 0.10 0.10 0.16 0.13 0.11 0.21 0.29 0.11 0.17 0.14 0.33 0.41 0.61 0.51 0.81 0.85 0.48 0.14 0.09 0.27 0.41 0.65 0.56 0.56 0.32 0.17 0.05 0.00 0.02 0.05 0.04 0.01 0.00 0.00 0.00 0.00
0.59 0.27 0.20 0.18 0.11 0.24 0.29 0.17 0.08 0.16 0.20 0.11 0.09 0.03 0.06 0.12 0.08 0.11 0.28 0.45 0.64 0.70 0.85 1.08 1.07 0.38 0.12 0.03 0.05 0.10 0.15 0.29 0.37 0.18 0.06 0.01 0.00 0.00 0.01 0.05 0.01 0.00 0.00 0.00 0.00
0.44 0.27 0.41 0.57 0.26 0.34 0.20 0.06 0.11 0.18 0.10 0.02 0.05 0.05 0.01 0.00 0.01 0.12 0.19 0.32 0.52 0.69 0.89 1.02 0.89 0.41 0.24 0.13 0.21 0.24 0.05 0.08 0.17 0.12 0.02 0.01 0.00 0.00 0.01 0.02 0.02 0.00 0.00 0.00 0.00

GFSSW_prec_precacc24_144.txt.gz
Total_Precipitation_Accumulation
0.00 0.01 0.01 0.01 0.02 0.02 0.02 0.02 0.02 0.02 0.02 0.01 0.01 0.03 0.03 0.03 0.01 0.00 0.00 0.00 0.00 0.00 0.00 0.00 0.00 0.00 0.00 0.00 0.00 0.00 0.00 0.00 0.00 0.00 0.00 0.00 0.00 0.00 0.00 0.00 0.00 0.00 0.00 0.00 0.00
0.00 0.01 0.01 0.01 0.02 0.02 0.02 0.02 0.02 0.02 0.02 0.01 0.02 0.02 0.04 0.04 0.01 0.00 0.00 0.00 0.00 0.00 0.00 0.00 0.00 0.01 0.00 0.00 0.00 0.01 0.01 0.00 0.00 0.00 0.00 0.00 0.00 0.00 0.00 0.00 0.00 0.00 0.00 0.00 0.00
0.00 0.01 0.01 0.02 0.02 0.02 0.02 0.02 0.02 0.02 0.02 0.02 0.03 0.03 0.06 0.06 0.01 0.00 0.00 0.00 0.00 0.00 0.00 0.00 0.00 0.03 0.03 0.02 0.01 0.01 0.00 0.00 0.00 0.00 0.00 0.00 0.00 0.00 0.00 0.00 0.00 0.00 0.00 0.00 0.00
0.01 0.01 0.02 0.02 0.03 0.02 0.02 0.02 0.02 0.01 0.01 0.03 0.06 0.04 0.04 0.06 0.03 0.00 0.00 0.00 0.00 0.00 0.00 0.00 0.00 0.02 0.02 0.02 0.03 0.03 0.00 0.00 0.00 0.00 0.00 0.00 0.00 0.00 0.00 0.00 0.00 0.00 0.00 0.00 0.00
0.02 0.03 0.03 0.04 0.05 0.05 0.04 0.03 0.03 0.02 0.02 0.06 0.10 0.05 0.06 0.06 0.02 0.00 0.00 0.00 0.00 0.00 0.02 0.01 0.01 0.02 0.01 0.00 0.02 0.03 0.01 0.02 0.00 0.00 0.00 0.00 0.00 0.00 0.00 0.00 0.00 0.00 0.00 0.00 0.00
0.04 0.05 0.06 0.08 0.09 0.08 0.08 0.09 0.08 0.06 0.03 0.07 0.13 0.05 0.06 0.03 0.00 0.00 0.00 0.00 0.00 0.00 0.01 0.04 0.04 0.04 0.02 0.01 0.01 0.00 0.01 0.02 0.02 0.01 0.00 0.00 0.00 0.00 0.00 0.00 0.00 0.00 0.00 0.00 0.00
0.08 0.08 0.11 0.12 0.10 0.11 0.10 0.10 0.13 0.12 0.12 0.20 0.14 0.06 0.06 0.01 0.00 0.00 0.00 0.00 0.00 0.00 0.00 0.00 0.02 0.07 0.05 0.03 0.00 0.00 0.01 0.01 0.00 0.00 0.00 0.01 0.00 0.00 0.00 0.00 0.00 0.00 0.00 0.00 0.00
0.10 0.13 0.12 0.10 0.12 0.11 0.12 0.14 0.16 0.14 0.20 0.24 0.10 0.08 0.06 0.00 0.00 0.00 0.00 0.00 0.00 0.00 0.00 0.00 0.00 0.02 0.03 0.04 0.05 0.04 0.05 0.01 0.00 0.00 0.00 0.02 0.01 0.00 0.00 0.00 0.00 0.00 0.00 0.00 0.00
0.14 0.14 0.14 0.15 0.14 0.16 0.16 0.16 0.19 0.19 0.17 0.09 0.07 0.14 0.06 0.00 0.00 0.00 0.00 0.00 0.00 0.00 0.00 0.01 0.05 0.08 0.08 0.11 0.10 0.06 0.04 0.01 0.00 0.00 0.00 0.03 0.00 0.00 0.00 0.00 0.00 0.00 0.00 0.00 0.00
0.16 0.20 0.22 0.21 0.21 0.23 0.26 0.21 0.14 0.12 0.07 0.03 0.11 0.13 0.03 0.00 0.00 0.00 0.00 0.00 0.01 0.02 0.02 0.04 0.08 0.09 0.14 0.16 0.10 0.01 0.01 0.01 0.01 0.02 0.03 0.01 0.00 0.00 0.00 0.00 0.00 0.00 0.00 0.00 0.00
0.22 0.24 0.28 0.27 0.25 0.30 0.19 0.07 0.07 0.04 0.02 0.00 0.03 0.02 0.00 0.01 0.02 0.00 0.00 0.00 0.00 0.05 0.06 0.05 0.11 0.08 0.05 0.06 0.02 0.03 0.06 0.07 0.01 0.00 0.05 0.10 0.04 0.00 0.00 0.00 0.00 0.00 0.00 0.00 0.00
0.27 0.30 0.34 0.34 0.33 0.23 0.06 0.02 0.07 0.11 0.10 0.01 0.00 0.01 0.00 0.02 0.02 0.00 0.02 0.05 0.02 0.02 0.01 0.10 0.14 0.02 0.01 0.03 0.04 0.05 0.03 0.01 0.00 0.00 0.03 0.02 0.02 0.00 0.00 0.00 0.00 0.00 0.00 0.00 0.00
0.33 0.40 0.47 0.43 0.30 0.14 0.04 0.10 0.09 0.07 0.18 0.04 0.00 0.00 0.00 0.00 0.00 0.00 0.01 0.06 0.04 0.01 0.01 0.04 0.08 0.00 0.03 0.04 0.05 0.04 0.03 0.01 0.01 0.01 0.01 0.01 0.01 0.00 0.00 0.00 0.00 0.00 0.00 0.00 0.00
0.38 0.44 0.59 0.43 0.24 0.10 0.18 0.14 0.06 0.09 0.27 0.06 0.00 0.00 0.00 0.00 0.00 0.00 0.00 0.04 0.11 0.03 0.01 0.04 0.00 0.03 0.06 0.05 0.06 0.07 0.01 0.03 0.04 0.12 0.09 0.05 0.09 0.00 0.00 0.00 0.00 0.00 0.00 0.00 0.00
0.48 0.62 0.62 0.31 0.09 0.13 0.14 0.10 0.08 0.11 0.28 0.03 0.00 0.00 0.00 0.01 0.01 0.00 0.01 0.07 0.10 0.09 0.11 0.06 0.00 0.01 0.05 0.04 0.06 0.05 0.05 0.07 0.05 0.08 0.10 0.06 0.12 0.04 0.00 0.00 0.00 0.00 0.00 0.00 0.00
0.45 0.62 0.47 0.25 0.13 0.18 0.12 0.09 0.10 0.20 0.15 0.00 0.02 0.04 0.03 0.01 0.00 0.04 0.13 0.11 0.15 0.14 0.25 0.09 0.00 0.01 0.02 0.02 0.07 0.05 0.10 0.15 0.19 0.21 0.64 0.22 0.09 0.05 0.00 0.00 0.00 0.00 0.00 0.00 0.00
0.51 0.72 0.47 0.18 0.28 0.18 0.09 0.11 0.22 0.16 0.03 0.03 0.01 0.02 0.08 0.02 0.01 0.04 0.15 0.26 0.15 0.47 0.38 0.29 0.06 0.01 0.05 0.09 0.12 0.29 0.37 0.71 0.92 0.95 0.80 0.08 0.07 0.04 0.00 0.00 0.00 0.00 0.00 0.00 0.00
0.59 0.63 0.42 0.31 0.25 0.13 0.10 0.19 0.24 0.05 0.02 0.04 0.01 0.00 0.02 0.08 0.07 0.06 0.07 0.30 0.29 0.25 0.46 0.30 0.18 0.03 0.06 0.08 0.14 0.27 0.72 0.78 0.57 0.53 0.21 0.04 0.04 0.01 0.00 0.00 0.00 0.00 0.00 0.00 0.00
0.45 0.37 0.43 0.37 0.20 0.10 0.15 0.21 0.07 0.03 0.08 0.07 0.02 0.00 0.01 0.19 0.34 0.16 0.04 0.08 0.52 0.54 0.73 0.68 0.18 0.04 0.02 0.01 0.07 0.14 0.46 0.54 0.30 0.16 0.21 0.12 0.04 0.00 0.00 0.00 0.00 0.00 0.00 0.00 0.00
0.19 0.36 0.54 0.39 0.31 0.19 0.26 0.10 0.01 0.03 0.08 0.05 0.03 0.02 0.03 0.02 0.21 0.48 0.19 0.01 0.09 0.57 0.88 0.71 0.53 0.07 0.07 0.10 0.08 0.07 0.12 0.41 1.00 0.91 0.28 0.06 0.02 0.00 0.00 0.00 0.00 0.00 0.00 0.00 0.00
0.32 0.51 0.59 0.47 0.39 0.42 0.17 0.03 0.01 0.02 0.06 0.06 0.02 0.01 0.00 0.01 0.03 0.21 0.36 0.14 0.07 0.15 0.64 1.11 0.76 0.17 0.19 0.32 0.18 0.27 0.29 0.46 0.87 0.58 0.29 0.15 0.01 0.00 0.00 0.00 0.00 0.00 0.00 0.00 0.00
0.45 0.58 0.47 0.38 0.43 0.32 0.08 0.03 0.02 0.03 0.04 0.11 0.11 0.04 0.01 0.01 0.03 0.04 0.07 0.31 0.32 0.22 0.17 0.51 1.06 0.45 0.23 0.28 0.25 0.23 0.61 0.72 0.87 0.71 0.38 0.27 0.11 0.01 0.01 0.01 0.00 0.00 0.00 0.00 0.00
0.61 0.47 0.61 0.39 0.30 0.08 0.07 0.06 0.04 0.01 0.02 0.07 0.05 0.03 0.04 0.07 0.20 0.09 0.12 0.27 0.52 0.45 0.39 0.33 0.66 0.68 0.41 0.57 0.47 0.53 0.26 0.41 0.44 0.33 0.26 0.26 0.11 0.02 0.02 0.02 0.01 0.00 0.00 0.00 0.00
0.60 0.48 0.68 0.72 0.12 0.05 0.15 0.17 0.12 0.06 0.06 0.10 0.09 0.07 0.12 0.08 0.10 0.21 0.11 0.08 0.18 0.28 0.39 0.54 0.51 0.50 0.45 0.92 1.06 0.96 0.74 0.36 0.46 0.38 0.16 0.12 0.05 0.09 0.08 0.05 0.02 0.01 0.01 0.00 0.00
0.72 0.37 0.14 0.42 0.14 0.08 0.25 0.32 0.11 0.10 0.14 0.18 0.15 0.11 0.19 0.24 0.08 0.04 0.02 0.02 0.05 0.15 0.33 0.72 0.44 0.29 0.13 0.09 0.27 0.41 0.65 0.57 0.56 0.33 0.19 0.05 0.00 0.02 0.09 0.07 0.04 0.03 0.01 0.00 0.00
0.65 0.37 0.31 0.25 0.16 0.33 0.44 0.27 0.09 0.20 0.25 0.10 0.06 0.02 0.04 0.06 0.04 0.06 0.05 0.04 0.06 0.16 0.47 0.73 0.56 0.16 0.03 0.01 0.05 0.10 0.15 0.29 0.37 0.18 0.06 0.02 0.01 0.01 0.03 0.09 0.13 0.08 0.04 0.00 0.00
0.49 0.36 0.49 0.76 0.43 0.49 0.27 0.07 0.12 0.19 0.14 0.00 0.01 0.02 0.01 0.00 0.00 0.01 0.01 0.01 0.04 0.07 0.20 0.31 0.47 0.35 0.12 0.02 0.09 0.15 0.06 0.10 0.20 0.16 0.06 0.08 0.08 0.02 0.03 0.13 0.36 0.19 0.07 0.03 0.00

GFSSW_prec_precacc24_150.txt.gz
Total_Precipitation_Accumulation
0.01 0.01 0.01 0.02 0.02 0.03 0.03 0.04 0.04 0.04 0.04 0.03 0.02 0.02 0.02 0.02 0.00 0.00 0.00 0.00 0.00 0.00 0.00 0.00 0.00 0.00 0.00 0.00 0.00 0.01 0.02 0.00 0.00 0.00 0.00 0.00 0.00 0.00 0.00 0.00 0.00 0.00 0.00 0.00 0.00
0.01 0.02 0.03 0.03 0.02 0.02 0.02 0.03 0.04 0.04 0.05 0.06 0.09 0.12 0.14 0.11 0.01 0.00 0.00 0.00 0.00 0.00 0.00 0.00 0.00 0.01 0.00 0.00 0.01 0.04 0.02 0.00 0.00 0.00 0.00 0.00 0.00 0.00 0.00 0.00 0.00 0.00 0.00 0.00 0.00
0.02 0.03 0.02 0.02 0.02 0.03 0.04 0.04 0.04 0.04 0.05 0.07 0.11 0.18 0.29 0.09 0.00 0.00 0.00 0.00 0.00 0.00 0.00 0.00 0.00 0.03 0.03 0.02 0.02 0.03 0.01 0.00 0.00 0.00 0.00 0.00 0.00 0.00 0.00 0.00 0.00 0.00 0.00 0.00 0.00
0.03 0.03 0.03 0.03 0.05 0.05 0.04 0.03 0.03 0.03 0.05 0.08 0.17 0.29 0.19 0.02 0.00 0.00 0.00 0.00 0.00 0.00 0.00 0.00 0.00 0.02 0.02 0.03 0.03 0.04 0.00 0.00 0.00 0.00 0.01 0.00 0.00 0.00 0.00 0.00 0.00 0.00 0.00 0.00 0.00
0.03 0.04 0.05 0.07 0.07 0.07 0.05 0.05 0.05 0.05 0.05 0.10 0.25 0.31 0.08 0.02 0.01 0.00 0.00 0.00 0.00 0.00 0.02 0.01 0.01 0.04 0.04 0.02 0.04 0.05 0.01 0.02 0.01 0.04 0.03 0.02 0.01 0.00 0.00 0.00 0.00 0.00 0.00 0.00 0.00
0.06 0.06 0.08 0.10 0.11 0.09 0.08 0.10 0.10 0.07 0.05 0.10 0.30 0.24 0.05 0.03 0.00 0.00 0.00 0.00 0.00 0.01 0.02 0.05 0.04 0.06 0.09 0.03 0.04 0.03 0.02 0.03 0.03 0.03 0.03 0.04 0.01 0.02 0.00 0.00 0.00 0.00 0.00 0.00 0.00
0.09 0.10 0.12 0.12 0.10 0.11 0.11 0.11 0.14 0.13 0.13 0.22 0.31 0.11 0.07 0.02 0.00 0.00 0.00 0.00 0.01 0.01 0.00 0.00 0.03 0.11 0.08 0.03 0.01 0.01 0.02 0.01 0.00 0.00 0.01 0.07 0.04 0.00 0.00 0.00 0.00 0.00 0.00 0.00 0.00
0.09 0.12 0.12 0.10 0.12 0.11 0.13 0.16 0.16 0.15 0.21 0.27 0.16 0.07 0.09 0.00 0.00 0.00 0.00 0.00 0.00 0.00 0.00 0.00 0.00 0.02 0.04 0.06 0.05 0.08 0.11 0.05 0.00 0.00 0.01 0.12 0.08 0.00 0.00 0.00 0.00 0.00 0.00 0.00 0.00
0.12 0.13 0.14 0.15 0.14 0.16 0.16 0.17 0.20 0.20 0.18 0.12 0.09 0.13 0.07 0.00 0.00 0.00 0.00 0.00 0.00 0.00 0.00 0.01 0.05 0.08 0.08 0.16 0.16 0.11 0.13 0.03 0.01 0.04 0.15 0.15 0.05 0.00 0.00 0.01 0.00 0.00 0.00 0.00 0.00
0.16 0.20 0.21 0.21 0.22 0.24 0.26 0.21 0.15 0.13 0.08 0.05 0.14 0.13 0.03 0.00 0.00 0.00 0.00 0.00 0.00 0.01 0.02 0.08 0.17 0.16 0.18 0.25 0.19 0.06 0.08 0.04 0.04 0.04 0.18 0.30 0.21 0.03 0.01 0.01 0.01 0.00 0.00 0.00 0.00
0.21 0.24 0.28 0.28 0.27 0.30 0.19 0.08 0.08 0.04 0.02 0.01 0.03 0.02 0.00 0.02 0.03 0.00 0.00 0.00 0.00 0.03 0.05 0.06 0.12 0.13 0.12 0.15 0.06 0.07 0.09 0.10 0.02 0.01 0.14 0.25 0.18 0.06 0.03 0.02 0.00 0.00 0.00 0.00 0.00
0.26 0.30 0.34 0.36 0.33 0.23 0.06 0.02 0.03 0.02 0.03 0.01 0.01 0.01 0.00 0.02 0.02 0.00 0.00 0.01 0.01 0.01 0.01 0.09 0.11 0.02 0.02 0.06 0.11 0.13 0.09 0.04 0.04 0.01 0.10 0.10 0.05 0.03 0.04 0.01 0.00 0.00 0.00 0.00 0.00
0.33 0.40 0.47 0.43 0.30 0.14 0.04 0.09 0.06 0.03 0.14 0.04 0.00 0.00 0.00 0.00 0.00 0.00 0.00 0.01 0.02 0.01 0.01 0.04 0.06 0.00 0.03 0.04 0.06 0.07 0.13 0.07 0.04 0.01 0.02 0.02 0.02 0.00 0.00 0.00 0.00 0.00 0.00 0.00 0.00
0.37 0.44 0.58 0.41 0.24 0.10 0.18 0.13 0.06 0.05 0.21 0.06 0.00 0.00 0.00 0.00 0.00 0.00 0.00 0.00 0.06 0.02 0.01 0.03 0.00 0.03 0.06 0.05 0.06 0.07 0.01 0.03 0.04 0.13 0.10 0.06 0.12 0.00 0.00 0.00 0.00 0.00 0.00 0.00 0.00
0.47 0.62 0.61 0.29 0.08 0.13 0.14 0.10 0.08 0.07 0.22 0.03 0.00 0.00 0.00 0.01 0.00 0.00 0.00 0.00 0.03 0.08 0.09 0.04 0.00 0.01 0.05 0.04 0.06 0.05 0.05 0.07 0.05 0.09 0.11 0.06 0.16 0.04 0.00 0.00 0.00 0.00 0.00 0.00 0.00
0.44 0.62 0.46 0.25 0.13 0.18 0.12 0.09 0.09 0.16 0.12 0.00 0.00 0.00 0.00 0.00 0.00 0.00 0.00 0.00 0.02 0.07 0.21 0.09 0.00 0.01 0.02 0.02 0.07 0.05 0.10 0.15 0.19 0.21 0.63 0.22 0.09 0.05 0.00 0.00 0.00 0.00 0.00 0.00 0.00
0.49 0.72 0.47 0.17 0.28 0.18 0.09 0.11 0.20 0.13 0.03 0.03 0.01 0.00 0.00 0.00 0.00 0.00 0.00 0.01 0.02 0.25 0.17 0.26 0.05 0.01 0.05 0.09 0.12 0.29 0.37 0.67 0.87 0.94 0.79 0.08 0.07 0.04 0.00 0.00 0.00 0.00 0.00 0.00 0.00
0.57 0.63 0.42 0.31 0.25 0.13 0.09 0.18 0.21 0.05 0.02 0.04 0.01 0.00 0.00 0.00 0.00 0.00 0.01 0.01 0.02 0.15 0.36 0.28 0.16 0.03 0.06 0.07 0.12 0.27 0.72 0.74 0.54 0.52 0.21 0.04 0.04 0.01 0.00 0.00 0.00 0.00 0.00 0.00 0.00
0.44 0.37 0.43 0.37 0.20 0.10 0.14 0.20 0.06 0.03 0.08 0.07 0.02 0.00 0.00 0.02 0.00 0.00 0.00 0.00 0.04 0.21 0.61 0.64 0.17 0.04 0.02 0.01 0.07 0.14 0.46 0.54 0.30 0.16 0.22 0.12 0.04 0.00 0.00 0.00 0.00 0.00 0.00 0.00 0.00
0.19 0.36 0.54 0.39 0.31 0.18 0.21 0.09 0.01 0.03 0.08 0.05 0.02 0.01 0.00 0.00 0.00 0.00 0.00 0.00 0.01 0.09 0.56 0.60 0.53 0.07 0.07 0.10 0.08 0.07 0.12 0.41 0.99 0.90 0.29 0.06 0.02 0.00 0.00 0.00 0.00 0.00 0.00 0.00 0.00
0.32 0.51 0.59 0.47 0.38 0.32 0.14 0.03 0.01 0.02 0.05 0.05 0.02 0.00 0.00 0.00 0.00 0.01 0.01 0.00 0.04 0.08 0.24 0.44 0.53 0.16 0.19 0.30 0.16 0.25 0.28 0.46 0.87 0.60 0.36 0.17 0.02 0.01 0.01 0.01 0.00 0.00 0.00 0.00 0.00
0.46 0.58 0.47 0.38 0.42 0.22 0.04 0.03 0.02 0.01 0.02 0.03 0.01 0.01 0.00 0.00 0.03 0.02 0.01 0.04 0.07 0.06 0.09 0.26 0.53 0.27 0.20 0.27 0.25 0.22 0.61 0.71 0.88 0.72 0.42 0.32 0.12 0.01 0.02 0.01 0.00 0.00 0.00 0.00 0.00
0.59 0.48 0.62 0.39 0.29 0.08 0.05 0.04 0.03 0.01 0.02 0.06 0.04 0.02 0.03 0.05 0.12 0.04 0.04 0.08 0.05 0.07 0.12 0.15 0.35 0.31 0.25 0.49 0.44 0.47 0.23 0.40 0.45 0.38 0.28 0.35 0.15 0.03 0.06 0.02 0.01 0.00 0.00 0.00 0.00
0.57 0.48 0.69 0.73 0.11 0.04 0.13 0.14 0.06 0.02 0.04 0.07 0.08 0.06 0.10 0.07 0.07 0.16 0.08 0.02 0.01 0.03 0.06 0.23 0.21 0.23 0.27 0.80 1.01 0.92 0.72 0.33 0.37 0.36 0.16 0.14 0.06 0.09 0.10 0.05 0.02 0.01 0.01 0.00 0.00
0.63 0.36 0.14 0.44 0.14 0.08 0.26 0.28 0.07 0.10 0.15 0.14 0.13 0.06 0.09 0.20 0.07 0.03 0.01 0.01 0.00 0.01 0.09 0.32 0.19 0.14 0.08 0.09 0.27 0.40 0.65 0.57 0.55 0.30 0.20 0.05 0.00 0.03 0.10 0.07 0.04 0.04 0.01 0.00 0.00
0.59 0.36 0.31 0.25 0.17 0.35 0.47 0.29 0.09 0.20 0.28 0.11 0.05 0.00 0.03 0.07 0.02 0.02 0.02 0.01 0.00 0.00 0.01 0.14 0.14 0.03 0.00 0.00 0.03 0.09 0.15 0.29 0.37 0.19 0.08 0.03 0.02 0.02 0.03 0.09 0.14 0.10 0.05 0.01 0.00
0.46 0.35 0.47 0.74 0.44 0.51 0.27 0.07 0.12 0.20 0.16 0.00 0.01 0.09 0.04 0.01 0.00 0.00 0.01 0.04 0.01 0.01 0.00 0.02 0.03 0.03 0.01 0.00 0.00 0.01 0.04 0.10 0.23 0.23 0.15 0.14 0.10 0.02 0.03 0.13 0.41 0.22 0.09 0.05 0.01

GFSSW_prec_precacc24_156.txt.gz
Total_Precipitation_Accumulation
0.01 0.02 0.03 0.03 0.03 0.03 0.04 0.06 0.06 0.05 0.06 0.05 0.05 0.06 0.07 0.09 0.07 0.05 0.01 0.00 0.00 0.00 0.00 0.00 0.00 0.00 0.00 0.00 0.00 0.02 0.04 0.01 0.00 0.00 0.00 0.00 0.00 0.00 0.00 0.00 0.00 0.00 0.00 0.00 0.00
0.02 0.03 0.04 0.04 0.03 0.03 0.05 0.04 0.04 0.05 0.06 0.07 0.10 0.14 0.20 0.17 0.03 0.02 0.00 0.00 0.00 0.00 0.00 0.00 0.00 0.01 0.00 0.00 0.01 0.05 0.02 0.00 0.00 0.00 0.00 0.00 0.00 0.00 0.00 0.00 0.00 0.00 0.00 0.00 0.00
0.03 0.03 0.02 0.03 0.03 0.04 0.04 0.04 0.04 0.04 0.05 0.07 0.12 0.23 0.34 0.08 0.01 0.00 0.00 0.00 0.00 0.00 0.00 0.00 0.00 0.03 0.03 0.02 0.02 0.03 0.01 0.00 0.00 0.00 0.00 0.00 0.00 0.00 0.00 0.00 0.00 0.00 0.00 0.00 0.00
0.03 0.03 0.03 0.03 0.05 0.05 0.05 0.04 0.03 0.03 0.05 0.09 0.19 0.32 0.19 0.01 0.01 0.00 0.01 0.01 0.01 0.01 0.01 0.00 0.00 0.03 0.04 0.04 0.04 0.06 0.00 0.00 0.00 0.00 0.01 0.02 0.01 0.00 0.00 0.00 0.00 0.00 0.00 0.00 0.00
0.03 0.04 0.04 0.07 0.07 0.08 0.06 0.05 0.06 0.06 0.05 0.10 0.26 0.33 0.07 0.02 0.01 0.00 0.00 0.01 0.01 0.01 0.01 0.01 0.02 0.07 0.09 0.04 0.06 0.09 0.03 0.03 0.02 0.04 0.04 0.03 0.04 0.01 0.00 0.00 0.00 0.00 0.00 0.00 0.00
0.05 0.06 0.08 0.09 0.11 0.10 0.10 0.11 0.11 0.08 0.06 0.10 0.31 0.26 0.04 0.03 0.00 0.00 0.00 0.00 0.00 0.01 0.02 0.01 0.04 0.06 0.10 0.04 0.07 0.09 0.05 0.03 0.03 0.03 0.03 0.07 0.05 0.03 0.00 0.00 0.00 0.00 0.00 0.00 0.00
0.08 0.09 0.11 0.12 0.10 0.12 0.12 0.12 0.15 0.13 0.14 0.23 0.33 0.10 0.07 0.02 0.00 0.00 0.00 0.00 0.01 0.01 0.00 0.00 0.02 0.10 0.12 0.06 0.02 0.03 0.05 0.01 0.00 0.01 0.02 0.12 0.13 0.01 0.00 0.01 0.03 0.01 0.00 0.00 0.00
0.09 0.11 0.11 0.10 0.12 0.11 0.14 0.17 0.16 0.15 0.21 0.27 0.17 0.06 0.08 0.00 0.00 0.00 0.00 0.00 0.00 0.00 0.00 0.00 0.00 0.02 0.06 0.08 0.06 0.09 0.13 0.07 0.00 0.02 0.06 0.29 0.32 0.00 0.00 0.02 0.01 0.00 0.00 0.00 0.00
0.12 0.12 0.14 0.15 0.15 0.17 0.17 0.17 0.20 0.20 0.18 0.12 0.08 0.12 0.07 0.00 0.00 0.00 0.00 0.00 0.00 0.00 0.00 0.00 0.01 0.05 0.07 0.17 0.18 0.12 0.14 0.04 0.01 0.06 0.24 0.32 0.22 0.00 0.00 0.02 0.02 0.02 0.02 0.01 0.00
0.14 0.19 0.21 0.21 0.23 0.25 0.26 0.21 0.15 0.13 0.08 0.05 0.12 0.12 0.03 0.00 0.00 0.00 0.00 0.00 0.00 0.00 0.01 0.04 0.09 0.12 0.13 0.22 0.17 0.07 0.12 0.05 0.06 0.06 0.24 0.33 0.25 0.04 0.01 0.03 0.02 0.01 0.00 0.00 0.00
0.16 0.21 0.27 0.28 0.27 0.30 0.19 0.08 0.08 0.04 0.02 0.01 0.02 0.02 0.00 0.02 0.03 0.00 0.00 0.00 0.00 0.00 0.00 0.01 0.03 0.06 0.09 0.11 0.06 0.10 0.15 0.13 0.02 0.01 0.19 0.25 0.18 0.06 0.03 0.03 0.00 0.00 0.00 0.00 0.00
0.16 0.24 0.32 0.35 0.33 0.23 0.06 0.02 0.03 0.01 0.02 0.01 0.01 0.01 0.00 0.02 0.02 0.00 0.00 0.00 0.00 0.00 0.00 0.00 0.01 0.00 0.01 0.05 0.11 0.14 0.13 0.06 0.06 0.03 0.11 0.10 0.05 0.03 0.04 0.01 0.00 0.00 0.00 0.00 0.00
0.19 0.30 0.42 0.42 0.30 0.14 0.04 0.09 0.06 0.03 0.14 0.04 0.00 0.00 0.00 0.00 0.00 0.00 0.00 0.00 0.00 0.00 0.00 0.00 0.00 0.00 0.02 0.03 0.05 0.06 0.13 0.08 0.05 0.01 0.02 0.02 0.02 0.00 0.00 0.00 0.00 0.00 0.00 0.00 0.01
0.15 0.29 0.48 0.37 0.24 0.10 0.18 0.13 0.06 0.05 0.21 0.06 0.00 0.00 0.00 0.00 0.00 0.00 0.00 0.00 0.00 0.00 0.00 0.00 0.00 0.00 0.01 0.03 0.04 0.05 0.01 0.03 0.04 0.12 0.09 0.06 0.12 0.00 0.00 0.00 0.00 0.00 0.00 0.00 0.02
0.21 0.44 0.47 0.24 0.08 0.13 0.14 0.10 0.08 0.07 0.22 0.03 0.00 0.00 0.00 0.00 0.00 0.00 0.00 0.00 0.00 0.00 0.00 0.00 0.00 0.00 0.00 0.00 0.03 0.03 0.04 0.07 0.05 0.08 0.10 0.06 0.16 0.04 0.00 0.00 0.00 0.00 0.00 0.00 0.00
0.17 0.42 0.30 0.18 0.12 0.18 0.12 0.09 0.09 0.16 0.12 0.00 0.00 0.00 0.00 0.00 0.00 0.00 0.00 0.00 0.00 0.00 0.00 0.00 0.00 0.00 0.00 0.00 0.03 0.04 0.08 0.13 0.18 0.15 0.37 0.17 0.09 0.05 0.00 0.00 0.00 0.00 0.00 0.00 0.00
0.23 0.53 0.33 0.14 0.26 0.17 0.09 0.11 0.20 0.13 0.03 0.03 0.01 0.00 0.00 0.00 0.00 0.00 0.00 0.00 0.00 0.00 0.00 0.00 0.00 0.00 0.00 0.02 0.04 0.11 0.15 0.34 0.47 0.57 0.53 0.08 0.07 0.04 0.00 0.00 0.00 0.00 0.00 0.00 0.00
0.33 0.46 0.28 0.24 0.22 0.13 0.09 0.17 0.20 0.05 0.02 0.04 0.01 0.00 0.00 0.00 0.00 0.00 0.00 0.00 0.00 0.01 0.02 0.02 0.00 0.00 0.01 0.02 0.04 0.13 0.33 0.39 0.35 0.37 0.20 0.04 0.04 0.01 0.00 0.00 0.00 0.00 0.00 0.00 0.00
0.23 0.20 0.31 0.25 0.16 0.08 0.12 0.17 0.06 0.03 0.08 0.07 0.02 0.00 0.00 0.00 0.00 0.00 0.00 0.00 0.00 0.02 0.05 0.06 0.02 0.00 0.00 0.00 0.04 0.08 0.35 0.44 0.23 0.12 0.22 0.12 0.04 0.00 0.00 0.00 0.00 0.00 0.00 0.00 0.00
0.04 0.17 0.41 0.30 0.26 0.13 0.14 0.07 0.01 0.03 0.08 0.05 0.02 0.01 0.00 0.00 0.00 0.00 0.00 0.00 0.00 0.03 0.06 0.08 0.11 0.00 0.00 0.04 0.03 0.04 0.09 0.38 0.83 0.59 0.23 0.06 0.02 0.00 0.00 0.00 0.00 0.00 0.00 0.00 0.00
0.12 0.32 0.51 0.41 0.30 0.19 0.09 0.02 0.01 0.02 0.05 0.05 0.02 0.00 0.00 0.00 0.00 0.00 0.01 0.00 0.02 0.05 0.09 0.11 0.15 0.02 0.02 0.08 0.12 0.20 0.17 0.34 0.71 0.49 0.33 0.17 0.02 0.01 0.01 0.01 0.00 0.00 0.00 0.00 0.00
0.27 0.40 0.42 0.33 0.30 0.13 0.02 0.02 0.02 0.01 0.02 0.03 0.01 0.00 0.00 0.00 0.01 0.01 0.01 0.01 0.02 0.03 0.03 0.06 0.17 0.04 0.00 0.01 0.14 0.21 0.61 0.66 0.74 0.58 0.41 0.32 0.13 0.01 0.02 0.01 0.00 0.00 0.00 0.00 0.00
0.33 0.32 0.49 0.32 0.22 0.06 0.03 0.02 0.02 0.01 0.02 0.05 0.03 0.01 0.00 0.01 0.04 0.02 0.01 0.02 0.02 0.01 0.04 0.09 0.17 0.15 0.02 0.13 0.16 0.32 0.20 0.39 0.44 0.37 0.28 0.35 0.16 0.03 0.06 0.02 0.01 0.00 0.00 0.00 0.00
0.26 0.32 0.39 0.37 0.06 0.03 0.08 0.09 0.05 0.02 0.04 0.04 0.04 0.02 0.04 0.05 0.03 0.05 0.03 0.00 0.00 0.00 0.02 0.11 0.14 0.15 0.12 0.24 0.27 0.30 0.35 0.25 0.33 0.33 0.16 0.14 0.06 0.09 0.10 0.05 0.02 0.01 0.01 0.00 0.00
0.30 0.27 0.11 0.23 0.04 0.05 0.19 0.24 0.07 0.09 0.15 0.13 0.10 0.01 0.04 0.09 0.02 0.01 0.01 0.01 0.00 0.00 0.03 0.09 0.12 0.03 0.03 0.01 0.03 0.10 0.21 0.29 0.34 0.25 0.21 0.05 0.00 0.03 0.10 0.07 0.04 0.04 0.01 0.00 0.00
0.32 0.29 0.28 0.20 0.10 0.23 0.37 0.26 0.08 0.20 0.28 0.11 0.05 0.00 0.03 0.10 0.01 0.02 0.07 0.05 0.02 0.00 0.00 0.05 0.12 0.03 0.02 0.00 0.00 0.02 0.02 0.06 0.14 0.10 0.08 0.04 0.02 0.03 0.03 0.09 0.14 0.10 0.05 0.01 0.00
0.28 0.28 0.46 0.63 0.39 0.42 0.21 0.05 0.11 0.20 0.15 0.00 0.01 0.11 0.06 0.01 0.00 0.00 0.02 0.08 0.07 0.03 0.03 0.07 0.07 0.09 0.06 0.00 0.01 0.03 0.03 0.04 0.09 0.14 0.15 0.14 0.11 0.02 0.03 0.13 0.41 0.22 0.09 0.05 0.01